Time,TemperatureF,DewpointF,PressureIn,WindDirection,WindDirectionDegrees,WindSpeedMPH,WindSpeedGustMPH,Humidity,HourlyPrecipIn,Conditions,Clouds,dailyrainin,SoftwareType,DateUTC
2013-02-18 00:00:00,24.4,-5.6,28.21,NE,45,0.0,0.0,26,0.00,CLR,SKC,0.00,WeatherDisplay:10.37,2013-02-18 05:00:00,
2013-02-18 00:05:00,24.4,-5.6,28.20,NE,45,0.0,0.0,26,0.00,CLR,SKC,0.00,WeatherDisplay:10.37,2013-02-18 05:05:00,
2013-02-18 00:10:00,24.8,-7.8,28.20,North,0,1.1,0.0,23,0.00,CLR,SKC,0.00,WeatherDisplay:10.37,2013-02-18 05:10:00,
2013-02-18 00:15:00,25.0,-8.6,28.20,North,0,0.0,0.0,22,0.00,CLR,SKC,0.00,WeatherDisplay:10.37,2013-02-18 05:15:00,
2013-02-18 00:20:00,25.2,-8.4,28.20,North,0,0.0,0.0,22,0.00,CLR,SKC,0.00,WeatherDisplay:10.37,2013-02-18 05:20:00,
2013-02-18 00:21:00,25.2,-7.5,28.20,North,0,0.0,0.0,23,0.00,CLR,SKC,0.00,WeatherDisplay:10.37,2013-02-18 05:21:00,
2013-02-18 00:25:00,25.2,-6.6,28.21,North,0,0.0,0.0,24,0.00,CLR,SKC,0.00,WeatherDisplay:10.37,2013-02-18 05:25:00,
2013-02-18 00:26:00,25.2,-7.5,28.21,North,0,0.0,0.0,23,0.00,CLR,SKC,0.00,WeatherDisplay:10.37,2013-02-18 05:26:00,
2013-02-18 00:30:00,25.0,-7.7,28.21,North,0,0.0,0.0,23,0.00,CLR,SKC,0.00,WeatherDisplay:10.37,2013-02-18 05:30:00,
2013-02-18 00:31:00,24.8,-7.0,28.21,NE,45,0.0,0.0,24,0.00,CLR,SKC,0.00,WeatherDisplay:10.37,2013-02-18 05:31:00,
2013-02-18 00:35:00,24.6,-6.3,28.21,NE,45,0.0,0.0,25,0.00,CLR,SKC,0.00,WeatherDisplay:10.37,2013-02-18 05:35:00,
2013-02-18 00:36:00,24.6,-6.3,28.21,NE,45,0.0,0.0,25,0.00,CLR,SKC,0.00,WeatherDisplay:10.37,2013-02-18 05:36:00,
2013-02-18 00:40:00,24.3,-7.4,28.22,NE,45,0.0,0.0,24,0.00,CLR,SKC,0.00,WeatherDisplay:10.37,2013-02-18 05:40:00,
2013-02-18 00:41:00,24.3,-7.4,28.22,NE,45,0.0,0.0,24,0.00,CLR,SKC,0.00,WeatherDisplay:10.37,2013-02-18 05:41:00,
2013-02-18 00:45:00,24.1,-5.9,28.21,NE,45,0.0,0.0,26,0.00,CLR,SKC,0.00,WeatherDisplay:10.37,2013-02-18 05:45:00,
2013-02-18 00:46:00,24.1,-5.9,28.21,NE,45,0.0,0.0,26,0.00,CLR,SKC,0.00,WeatherDisplay:10.37,2013-02-18 05:46:00,
2013-02-18 00:51:00,23.9,-4.5,28.21,North,0,0.0,0.0,28,0.00,CLR,SKC,0.00,WeatherDisplay:10.37,2013-02-18 05:51:00,
2013-02-18 00:56:00,23.9,-5.3,28.22,North,0,0.0,0.0,27,0.00,CLR,SKC,0.00,WeatherDisplay:10.37,2013-02-18 05:56:00,
2013-02-18 01:01:00,23.7,-5.5,28.21,North,0,0.0,0.0,27,0.00,CLR,SKC,0.00,WeatherDisplay:10.37,2013-02-18 06:01:00,
2013-02-18 01:02:00,23.7,-5.5,28.21,North,0,0.0,0.0,27,0.00,CLR,SKC,0.00,WeatherDisplay:10.37,2013-02-18 06:02:00,
2013-02-18 01:06:00,23.7,-5.5,28.21,North,0,0.0,0.0,27,0.00,CLR,SKC,0.00,WeatherDisplay:10.37,2013-02-18 06:06:00,
2013-02-18 01:07:00,23.7,-5.5,28.21,North,0,0.0,0.0,27,0.00,CLR,SKC,0.00,WeatherDisplay:10.37,2013-02-18 06:07:00,
2013-02-18 01:11:00,23.5,-5.6,28.21,North,0,0.0,0.0,27,0.00,CLR,SKC,0.00,WeatherDisplay:10.37,2013-02-18 06:11:00,
2013-02-18 01:12:00,23.5,-5.6,28.21,North,0,0.0,0.0,27,0.00,CLR,SKC,0.00,WeatherDisplay:10.37,2013-02-18 06:12:00,
2013-02-18 01:16:00,23.5,-4.9,28.21,NE,45,0.0,0.0,28,0.00,CLR,SKC,0.00,WeatherDisplay:10.37,2013-02-18 06:16:00,
2013-02-18 01:17:00,23.4,-5.0,28.22,NE,45,0.0,0.0,28,0.00,CLR,SKC,0.00,WeatherDisplay:10.37,2013-02-18 06:17:00,
2013-02-18 01:18:00,23.4,-4.3,28.22,NE,45,0.0,0.0,29,0.00,CLR,SKC,0.00,WeatherDisplay:10.37,2013-02-18 06:18:00,
2013-02-18 01:21:00,23.4,-4.3,28.22,NE,45,0.0,0.0,29,0.00,CLR,SKC,0.00,WeatherDisplay:10.37,2013-02-18 06:21:00,
2013-02-18 01:22:00,23.4,-4.3,28.21,NE,45,0.0,0.0,29,0.00,CLR,SKC,0.00,WeatherDisplay:10.37,2013-02-18 06:22:00,
2013-02-18 01:23:00,23.4,-4.3,28.22,NE,45,0.0,0.0,29,0.00,CLR,SKC,0.00,WeatherDisplay:10.37,2013-02-18 06:23:00,
2013-02-18 01:26:00,23.4,-5.0,28.21,NE,45,0.0,0.0,28,0.00,CLR,SKC,0.00,WeatherDisplay:10.37,2013-02-18 06:26:00,
2013-02-18 01:27:00,23.2,-5.2,28.22,NE,45,0.0,0.0,28,0.00,CLR,SKC,0.00,WeatherDisplay:10.37,2013-02-18 06:27:00,
2013-02-18 01:28:00,23.2,-5.2,28.22,NE,45,0.0,0.0,28,0.00,CLR,SKC,0.00,WeatherDisplay:10.37,2013-02-18 06:28:00,
2013-02-18 01:32:00,23.2,-5.2,28.22,NE,45,0.0,0.0,28,0.00,CLR,SKC,0.00,WeatherDisplay:10.37,2013-02-18 06:32:00,
2013-02-18 01:33:00,23.2,-5.2,28.22,NE,45,0.0,0.0,28,0.00,CLR,SKC,0.00,WeatherDisplay:10.37,2013-02-18 06:33:00,
2013-02-18 01:37:00,23.2,-4.4,28.22,NE,45,0.0,0.0,29,0.00,CLR,SKC,0.00,WeatherDisplay:10.37,2013-02-18 06:37:00,
2013-02-18 01:38:00,23.2,-4.4,28.22,NE,45,0.0,0.0,29,0.00,CLR,SKC,0.00,WeatherDisplay:10.37,2013-02-18 06:38:00,
2013-02-18 01:42:00,23.0,-3.9,28.22,NE,45,0.0,0.0,30,0.00,CLR,SKC,0.00,WeatherDisplay:10.37,2013-02-18 06:42:00,
2013-02-18 01:43:00,23.0,-3.2,28.22,NE,45,0.0,0.0,31,0.00,CLR,SKC,0.00,WeatherDisplay:10.37,2013-02-18 06:43:00,
2013-02-18 01:44:00,23.0,-2.5,28.22,NE,45,0.0,0.0,32,0.00,CLR,SKC,0.00,WeatherDisplay:10.37,2013-02-18 06:44:00,
2013-02-18 01:47:00,23.0,-1.9,28.21,NE,45,0.0,0.0,33,0.00,CLR,SKC,0.00,WeatherDisplay:10.37,2013-02-18 06:47:00,
2013-02-18 01:48:00,22.8,-2.7,28.22,NE,45,0.0,0.0,32,0.00,CLR,SKC,0.00,WeatherDisplay:10.37,2013-02-18 06:48:00,
2013-02-18 01:49:00,22.8,-2.7,28.22,NE,45,0.0,0.0,32,0.00,CLR,SKC,0.00,WeatherDisplay:10.37,2013-02-18 06:49:00,
2013-02-18 01:52:00,23.0,-3.2,28.22,NE,45,0.0,0.0,31,0.00,CLR,SKC,0.00,WeatherDisplay:10.37,2013-02-18 06:52:00,
2013-02-18 01:53:00,23.0,-3.2,28.22,NE,45,0.0,0.0,31,0.00,CLR,SKC,0.00,WeatherDisplay:10.37,2013-02-18 06:53:00,
2013-02-18 01:55:00,23.0,-3.2,28.22,NE,45,0.0,0.0,31,0.00,CLR,SKC,0.00,WeatherDisplay:10.37,2013-02-18 06:55:00,
2013-02-18 01:57:00,23.0,-2.5,28.22,NE,45,0.0,0.0,32,0.00,CLR,SKC,0.00,WeatherDisplay:10.37,2013-02-18 06:57:00,
2013-02-18 01:58:00,23.0,-1.9,28.22,NE,45,0.0,0.0,33,0.00,CLR,SKC,0.00,WeatherDisplay:10.37,2013-02-18 06:58:00,
2013-02-18 02:00:00,23.0,-1.9,28.22,NE,45,0.0,0.0,33,0.00,CLR,SKC,0.00,WeatherDisplay:10.37,2013-02-18 07:00:00,
2013-02-18 02:02:00,23.0,-1.9,28.22,NE,45,0.0,0.0,33,0.00,CLR,SKC,0.00,WeatherDisplay:10.37,2013-02-18 07:02:00,
2013-02-18 02:03:00,23.0,-1.9,28.22,NE,45,0.0,0.0,33,0.00,CLR,SKC,0.00,WeatherDisplay:10.37,2013-02-18 07:03:00,
2013-02-18 02:06:00,23.0,-1.9,28.22,NE,45,0.0,0.0,33,0.00,CLR,SKC,0.00,WeatherDisplay:10.37,2013-02-18 07:06:00,
2013-02-18 02:07:00,23.0,-2.5,28.22,NE,45,0.0,0.0,32,0.00,CLR,SKC,0.00,WeatherDisplay:10.37,2013-02-18 07:07:00,
2013-02-18 02:08:00,23.0,-2.5,28.22,NE,45,0.0,0.0,32,0.00,CLR,SKC,0.00,WeatherDisplay:10.37,2013-02-18 07:08:00,
2013-02-18 02:11:00,23.0,-2.5,28.22,NE,45,0.0,0.0,32,0.00,CLR,SKC,0.00,WeatherDisplay:10.37,2013-02-18 07:11:00,
2013-02-18 02:12:00,23.0,-2.5,28.21,NE,45,0.0,0.0,32,0.00,CLR,SKC,0.00,WeatherDisplay:10.37,2013-02-18 07:12:00,
2013-02-18 02:13:00,23.0,-1.9,28.22,NE,45,0.0,0.0,33,0.00,CLR,SKC,0.00,WeatherDisplay:10.37,2013-02-18 07:13:00,
2013-02-18 02:16:00,22.8,-2.7,28.22,NE,45,0.0,0.0,32,0.00,CLR,SKC,0.00,WeatherDisplay:10.37,2013-02-18 07:16:00,
2013-02-18 02:18:00,22.8,-2.0,28.22,NE,45,0.0,0.0,33,0.00,CLR,SKC,0.00,WeatherDisplay:10.37,2013-02-18 07:18:00,
2013-02-18 02:21:00,22.8,-2.0,28.22,NE,45,0.0,0.0,33,0.00,CLR,SKC,0.00,WeatherDisplay:10.37,2013-02-18 07:21:00,
2013-02-18 02:23:00,22.8,-2.0,28.22,NE,45,0.0,0.0,33,0.00,CLR,SKC,0.00,WeatherDisplay:10.37,2013-02-18 07:23:00,
2013-02-18 02:24:00,22.8,-1.4,28.22,NE,45,0.0,0.0,34,0.00,CLR,SKC,0.00,WeatherDisplay:10.37,2013-02-18 07:24:00,
2013-02-18 02:26:00,22.8,-1.4,28.22,NE,45,0.0,0.0,34,0.00,CLR,SKC,0.00,WeatherDisplay:10.37,2013-02-18 07:26:00,
2013-02-18 02:28:00,22.6,-2.2,28.22,NE,45,0.0,0.0,33,0.00,CLR,SKC,0.00,WeatherDisplay:10.37,2013-02-18 07:28:00,
2013-02-18 02:29:00,22.6,-2.2,28.22,NE,45,0.0,0.0,33,0.00,CLR,SKC,0.00,WeatherDisplay:10.37,2013-02-18 07:29:00,
2013-02-18 02:31:00,22.6,-2.8,28.22,NE,45,0.0,0.0,32,0.00,CLR,SKC,0.00,WeatherDisplay:10.37,2013-02-18 07:31:00,
2013-02-18 02:33:00,22.6,-2.8,28.22,NE,45,0.0,0.0,32,0.00,CLR,SKC,0.00,WeatherDisplay:10.37,2013-02-18 07:33:00,
2013-02-18 02:34:00,22.6,-2.8,28.22,NE,45,0.0,0.0,32,0.00,CLR,SKC,0.00,WeatherDisplay:10.37,2013-02-18 07:34:00,
2013-02-18 02:37:00,22.6,-2.2,28.22,NE,45,0.0,0.0,33,0.00,CLR,SKC,0.00,WeatherDisplay:10.37,2013-02-18 07:37:00,
2013-02-18 02:39:00,22.5,-2.4,28.22,North,0,0.0,0.0,33,0.00,CLR,SKC,0.00,WeatherDisplay:10.37,2013-02-18 07:39:00,
2013-02-18 02:42:00,22.5,-3.0,28.22,SW,225,0.0,0.0,32,0.00,CLR,SKC,0.00,WeatherDisplay:10.37,2013-02-18 07:42:00,
2013-02-18 02:44:00,22.5,-3.0,28.23,SW,225,0.0,0.0,32,0.00,CLR,SKC,0.00,WeatherDisplay:10.37,2013-02-18 07:44:00,
2013-02-18 02:47:00,22.3,-3.2,28.23,SW,225,0.0,0.0,32,0.00,CLR,SKC,0.00,WeatherDisplay:10.37,2013-02-18 07:47:00,
2013-02-18 02:49:00,22.3,-3.2,28.23,NE,45,0.0,0.0,32,0.00,CLR,SKC,0.00,WeatherDisplay:10.37,2013-02-18 07:49:00,
2013-02-18 02:52:00,22.3,-2.5,28.22,NE,45,0.0,0.0,33,0.00,CLR,SKC,0.00,WeatherDisplay:10.37,2013-02-18 07:52:00,
2013-02-18 02:54:00,22.3,-2.5,28.23,NE,45,0.0,0.0,33,0.00,CLR,SKC,0.00,WeatherDisplay:10.37,2013-02-18 07:54:00,
2013-02-18 02:57:00,22.1,-2.7,28.22,NE,45,0.0,0.0,33,0.00,CLR,SKC,0.00,WeatherDisplay:10.37,2013-02-18 07:57:00,
2013-02-18 02:59:00,22.1,-2.7,28.22,NE,45,0.0,0.0,33,0.00,CLR,SKC,0.00,WeatherDisplay:10.37,2013-02-18 07:59:00,
2013-02-18 03:03:00,22.1,-2.7,28.22,NE,45,0.0,0.0,33,0.00,CLR,SKC,0.00,WeatherDisplay:10.37,2013-02-18 08:03:00,
2013-02-18 03:04:00,22.1,-2.7,28.22,NE,45,0.0,0.0,33,0.00,CLR,SKC,0.00,WeatherDisplay:10.37,2013-02-18 08:04:00,
2013-02-18 03:05:00,22.1,-2.7,28.22,NE,45,0.0,0.0,33,0.00,CLR,SKC,0.00,WeatherDisplay:10.37,2013-02-18 08:05:00,
2013-02-18 03:08:00,22.3,-0.7,28.23,North,0,0.0,0.7,36,0.00,CLR,SKC,0.00,WeatherDisplay:10.37,2013-02-18 08:08:00,
2013-02-18 03:09:00,22.5,-0.5,28.22,North,0,2.3,0.0,36,0.00,CLR,SKC,0.00,WeatherDisplay:10.37,2013-02-18 08:09:00,
2013-02-18 03:10:00,22.5,-0.5,28.23,North,0,2.3,0.0,36,0.00,CLR,SKC,0.00,WeatherDisplay:10.37,2013-02-18 08:10:00,
2013-02-18 03:13:00,22.5,-1.1,28.23,North,0,0.0,0.0,35,0.00,CLR,SKC,0.00,WeatherDisplay:10.37,2013-02-18 08:13:00,
2013-02-18 03:14:00,22.5,-1.1,28.22,NW,315,0.0,0.0,35,0.00,CLR,SKC,0.00,WeatherDisplay:10.37,2013-02-18 08:14:00,
2013-02-18 03:15:00,22.5,-1.1,28.22,NW,315,0.0,0.0,35,0.00,CLR,SKC,0.00,WeatherDisplay:10.37,2013-02-18 08:15:00,
2013-02-18 03:18:00,22.5,-1.7,28.23,SE,135,0.0,0.0,34,0.00,CLR,SKC,0.00,WeatherDisplay:10.37,2013-02-18 08:18:00,
2013-02-18 03:19:00,22.3,-1.9,28.23,West,270,0.0,0.0,34,0.00,CLR,SKC,0.00,WeatherDisplay:10.37,2013-02-18 08:19:00,
2013-02-18 03:20:00,22.3,-1.3,28.23,West,270,0.0,0.0,35,0.00,CLR,SKC,0.00,WeatherDisplay:10.37,2013-02-18 08:20:00,
2013-02-18 03:23:00,22.3,-1.9,28.23,NE,45,0.0,0.0,34,0.00,CLR,SKC,0.00,WeatherDisplay:10.37,2013-02-18 08:23:00,
2013-02-18 03:24:00,22.3,-1.9,28.23,NE,45,0.0,0.0,34,0.00,CLR,SKC,0.00,WeatherDisplay:10.37,2013-02-18 08:24:00,
2013-02-18 03:25:00,22.3,-1.9,28.23,NE,45,0.0,0.0,34,0.00,CLR,SKC,0.00,WeatherDisplay:10.37,2013-02-18 08:25:00,
2013-02-18 03:28:00,22.3,-1.9,28.23,NE,45,0.0,0.0,34,0.00,CLR,SKC,0.00,WeatherDisplay:10.37,2013-02-18 08:28:00,
2013-02-18 03:29:00,22.3,-1.3,28.23,NE,45,0.0,0.0,35,0.00,CLR,SKC,0.00,WeatherDisplay:10.37,2013-02-18 08:29:00,
2013-02-18 03:30:00,22.3,-1.3,28.23,NE,45,0.0,0.0,35,0.00,CLR,SKC,0.00,WeatherDisplay:10.37,2013-02-18 08:30:00,
2013-02-18 03:33:00,22.1,-2.0,28.23,NE,45,0.0,0.0,34,0.00,CLR,SKC,0.00,WeatherDisplay:10.37,2013-02-18 08:33:00,
2013-02-18 03:35:00,22.1,-2.0,28.23,NE,45,0.0,0.0,34,0.00,CLR,SKC,0.00,WeatherDisplay:10.37,2013-02-18 08:35:00,
2013-02-18 03:38:00,21.9,-1.6,28.23,NE,45,0.0,0.0,35,0.00,CLR,SKC,0.00,WeatherDisplay:10.37,2013-02-18 08:38:00,
2013-02-18 03:40:00,21.9,-1.0,28.23,NE,45,0.0,0.0,36,0.00,CLR,SKC,0.00,WeatherDisplay:10.37,2013-02-18 08:40:00,
2013-02-18 03:44:00,21.7,-1.8,28.23,NE,45,0.0,0.0,35,0.00,CLR,SKC,0.00,WeatherDisplay:10.37,2013-02-18 08:44:00,
2013-02-18 03:45:00,21.7,-1.8,28.23,NE,45,0.0,0.0,35,0.00,CLR,SKC,0.00,WeatherDisplay:10.37,2013-02-18 08:45:00,
2013-02-18 03:49:00,21.6,-1.9,28.23,NE,45,0.0,0.0,35,0.00,CLR,SKC,0.00,WeatherDisplay:10.37,2013-02-18 08:49:00,
2013-02-18 03:50:00,21.6,-1.9,28.23,NE,45,0.0,0.0,35,0.00,CLR,SKC,0.00,WeatherDisplay:10.37,2013-02-18 08:50:00,
2013-02-18 03:51:00,21.6,-1.9,28.22,NE,45,0.0,0.0,35,0.00,CLR,SKC,0.00,WeatherDisplay:10.37,2013-02-18 08:51:00,
2013-02-18 03:54:00,21.6,-1.9,28.23,NE,45,0.0,0.0,35,0.00,CLR,SKC,0.00,WeatherDisplay:10.37,2013-02-18 08:54:00,
2013-02-18 03:55:00,21.6,-1.9,28.23,NE,45,0.0,0.0,35,0.00,CLR,SKC,0.00,WeatherDisplay:10.37,2013-02-18 08:55:00,
2013-02-18 03:56:00,21.6,-1.9,28.23,NE,45,0.0,0.0,35,0.00,CLR,SKC,0.00,WeatherDisplay:10.37,2013-02-18 08:56:00,
2013-02-18 03:59:00,21.6,-1.9,28.23,NE,45,0.0,0.0,35,0.00,CLR,SKC,0.00,WeatherDisplay:10.37,2013-02-18 08:59:00,
2013-02-18 04:00:00,21.6,-1.9,28.23,NE,45,0.0,0.0,35,0.00,CLR,SKC,0.00,WeatherDisplay:10.37,2013-02-18 09:00:00,
2013-02-18 04:01:00,21.6,-1.9,28.23,NE,45,0.0,0.0,35,0.00,CLR,SKC,0.00,WeatherDisplay:10.37,2013-02-18 09:01:00,
2013-02-18 04:04:00,21.6,-1.3,28.23,NE,45,0.0,0.0,36,0.00,CLR,SKC,0.00,WeatherDisplay:10.37,2013-02-18 09:04:00,
2013-02-18 04:05:00,21.6,-1.3,28.23,NE,45,0.0,0.0,36,0.00,CLR,SKC,0.00,WeatherDisplay:10.37,2013-02-18 09:05:00,
2013-02-18 04:06:00,21.4,-1.5,28.23,NE,45,0.0,0.0,36,0.00,CLR,SKC,0.00,WeatherDisplay:10.37,2013-02-18 09:06:00,
2013-02-18 04:09:00,21.4,-0.9,28.23,NE,45,0.0,0.0,37,0.00,CLR,SKC,0.00,WeatherDisplay:10.37,2013-02-18 09:09:00,
2013-02-18 04:10:00,21.4,-0.9,28.23,NE,45,0.0,0.0,37,0.00,CLR,SKC,0.00,WeatherDisplay:10.37,2013-02-18 09:10:00,
2013-02-18 04:11:00,21.4,-0.9,28.23,NE,45,0.0,0.0,37,0.00,CLR,SKC,0.00,WeatherDisplay:10.37,2013-02-18 09:11:00,
2013-02-18 04:12:00,21.4,-0.9,28.23,NE,45,0.0,0.0,37,0.00,CLR,SKC,0.00,WeatherDisplay:10.37,2013-02-18 09:12:00,
2013-02-18 04:14:00,21.6,-0.7,28.23,NE,45,0.0,0.0,37,0.00,CLR,SKC,0.00,WeatherDisplay:10.37,2013-02-18 09:14:00,
2013-02-18 04:16:00,21.6,-0.2,28.23,NE,45,0.0,0.0,38,0.00,CLR,SKC,0.00,WeatherDisplay:10.37,2013-02-18 09:16:00,
2013-02-18 04:17:00,21.6,-0.2,28.23,NE,45,0.0,0.0,38,0.00,CLR,SKC,0.00,WeatherDisplay:10.37,2013-02-18 09:17:00,
2013-02-18 04:19:00,21.6,-0.2,28.23,NE,45,0.0,0.0,38,0.00,CLR,SKC,0.00,WeatherDisplay:10.37,2013-02-18 09:19:00,
2013-02-18 04:21:00,21.6,-0.2,28.23,NE,45,0.0,0.0,38,0.00,CLR,SKC,0.00,WeatherDisplay:10.37,2013-02-18 09:21:00,
2013-02-18 04:22:00,21.6,-0.2,28.22,NE,45,0.0,0.0,38,0.00,CLR,SKC,0.00,WeatherDisplay:10.37,2013-02-18 09:22:00,
2013-02-18 04:25:00,21.7,0.0,28.23,NE,45,0.0,0.0,38,0.00,CLR,SKC,0.00,WeatherDisplay:10.37,2013-02-18 09:25:00,
2013-02-18 04:26:00,21.7,0.0,28.23,NE,45,0.0,0.0,38,0.00,CLR,SKC,0.00,WeatherDisplay:10.37,2013-02-18 09:26:00,
2013-02-18 04:27:00,21.7,0.0,28.23,NE,45,0.0,0.0,38,0.00,CLR,SKC,0.00,WeatherDisplay:10.37,2013-02-18 09:27:00,
2013-02-18 04:30:00,21.7,0.0,28.23,NE,45,0.0,0.0,38,0.00,CLR,SKC,0.00,WeatherDisplay:10.37,2013-02-18 09:30:00,
2013-02-18 04:31:00,21.9,0.2,28.23,NE,45,0.0,0.0,38,0.00,CLR,SKC,0.00,WeatherDisplay:10.37,2013-02-18 09:31:00,
2013-02-18 04:32:00,21.9,0.2,28.22,NE,45,0.0,0.0,38,0.00,CLR,SKC,0.00,WeatherDisplay:10.37,2013-02-18 09:32:00,
2013-02-18 04:35:00,21.9,-0.4,28.23,NE,45,0.0,0.0,37,0.00,CLR,SKC,0.00,WeatherDisplay:10.37,2013-02-18 09:35:00,
2013-02-18 04:36:00,21.9,-0.4,28.23,NE,45,0.0,0.0,37,0.00,CLR,SKC,0.00,WeatherDisplay:10.37,2013-02-18 09:36:00,
2013-02-18 04:37:00,21.9,0.2,28.23,NE,45,0.0,0.0,38,0.00,CLR,SKC,0.00,WeatherDisplay:10.37,2013-02-18 09:37:00,
2013-02-18 04:40:00,21.7,0.0,28.23,NE,45,0.0,0.0,38,0.00,CLR,SKC,0.00,WeatherDisplay:10.37,2013-02-18 09:40:00,
2013-02-18 04:41:00,21.7,-0.6,28.23,NE,45,0.0,0.0,37,0.00,CLR,SKC,0.00,WeatherDisplay:10.37,2013-02-18 09:41:00,
2013-02-18 04:42:00,21.9,-0.4,28.23,NE,45,0.0,0.0,37,0.00,CLR,SKC,0.00,WeatherDisplay:10.37,2013-02-18 09:42:00,
2013-02-18 04:45:00,21.9,-0.4,28.23,NE,45,1.1,0.0,37,0.00,CLR,SKC,0.00,WeatherDisplay:10.37,2013-02-18 09:45:00,
2013-02-18 04:46:00,21.9,-0.4,28.23,NE,45,1.1,0.0,37,0.00,CLR,SKC,0.00,WeatherDisplay:10.37,2013-02-18 09:46:00,
2013-02-18 04:47:00,21.9,-0.4,28.23,NE,45,0.0,0.0,37,0.00,CLR,SKC,0.00,WeatherDisplay:10.37,2013-02-18 09:47:00,
2013-02-18 04:50:00,21.7,-0.6,28.23,NE,45,0.0,0.0,37,0.00,CLR,SKC,0.00,WeatherDisplay:10.37,2013-02-18 09:50:00,
2013-02-18 04:51:00,21.7,-0.6,28.23,NE,45,0.0,0.0,37,0.00,CLR,SKC,0.00,WeatherDisplay:10.37,2013-02-18 09:51:00,
2013-02-18 04:52:00,21.7,-1.2,28.23,NE,45,0.0,0.0,36,0.00,CLR,SKC,0.00,WeatherDisplay:10.37,2013-02-18 09:52:00,
2013-02-18 04:53:00,21.7,-0.6,28.23,NE,45,0.0,0.0,37,0.00,CLR,SKC,0.00,WeatherDisplay:10.37,2013-02-18 09:53:00,
2013-02-18 04:56:00,21.7,-1.2,28.23,NE,45,0.0,0.0,36,0.00,CLR,SKC,0.00,WeatherDisplay:10.37,2013-02-18 09:56:00,
2013-02-18 04:57:00,21.7,0.0,28.23,NE,45,0.0,0.0,38,0.00,CLR,SKC,0.00,WeatherDisplay:10.37,2013-02-18 09:57:00,
2013-02-18 04:58:00,21.7,0.0,28.23,NE,45,0.0,0.0,38,0.00,CLR,SKC,0.00,WeatherDisplay:10.37,2013-02-18 09:58:00,
2013-02-18 05:01:00,21.7,0.0,28.24,NE,45,0.0,0.0,38,0.00,CLR,SKC,0.00,WeatherDisplay:10.37,2013-02-18 10:01:00,
2013-02-18 05:02:00,21.7,0.0,28.23,NE,45,0.0,0.0,38,0.00,CLR,SKC,0.00,WeatherDisplay:10.37,2013-02-18 10:02:00,
2013-02-18 05:03:00,21.6,-0.2,28.23,NE,45,0.0,0.0,38,0.00,CLR,SKC,0.00,WeatherDisplay:10.37,2013-02-18 10:03:00,
2013-02-18 05:06:00,21.7,0.0,28.23,NE,45,0.0,0.0,38,0.00,CLR,SKC,0.00,WeatherDisplay:10.37,2013-02-18 10:06:00,
2013-02-18 05:07:00,21.7,0.0,28.23,NE,45,0.0,0.0,38,0.00,CLR,SKC,0.00,WeatherDisplay:10.37,2013-02-18 10:07:00,
2013-02-18 05:08:00,21.7,0.0,28.23,NE,45,0.0,0.0,38,0.00,CLR,SKC,0.00,WeatherDisplay:10.37,2013-02-18 10:08:00,
2013-02-18 05:11:00,21.7,0.5,28.23,NE,45,0.0,0.0,39,0.00,CLR,SKC,0.00,WeatherDisplay:10.37,2013-02-18 10:11:00,
2013-02-18 05:12:00,21.6,-0.2,28.24,NE,45,0.0,0.0,38,0.00,CLR,SKC,0.00,WeatherDisplay:10.37,2013-02-18 10:12:00,
2013-02-18 05:13:00,21.6,-0.2,28.24,NE,45,0.0,0.0,38,0.00,CLR,SKC,0.00,WeatherDisplay:10.37,2013-02-18 10:13:00,
2013-02-18 05:16:00,21.6,-0.2,28.23,NE,45,0.0,0.0,38,0.00,CLR,SKC,0.00,WeatherDisplay:10.37,2013-02-18 10:16:00,
2013-02-18 05:17:00,21.6,-0.2,28.23,NE,45,0.0,0.0,38,0.00,CLR,SKC,0.00,WeatherDisplay:10.37,2013-02-18 10:17:00,
2013-02-18 05:18:00,21.6,-0.2,28.23,NE,45,0.0,0.0,38,0.00,CLR,SKC,0.00,WeatherDisplay:10.37,2013-02-18 10:18:00,
2013-02-18 05:21:00,21.6,-0.2,28.23,NE,45,0.0,0.0,38,0.00,CLR,SKC,0.00,WeatherDisplay:10.37,2013-02-18 10:21:00,
2013-02-18 05:23:00,21.4,-0.3,28.24,NE,45,0.0,0.0,38,0.00,CLR,SKC,0.00,WeatherDisplay:10.37,2013-02-18 10:23:00,
2013-02-18 05:26:00,21.4,-0.3,28.24,NE,45,0.0,0.0,38,0.00,CLR,SKC,0.00,WeatherDisplay:10.37,2013-02-18 10:26:00,
2013-02-18 05:28:00,21.4,-0.3,28.24,NE,45,0.0,0.0,38,0.00,CLR,SKC,0.00,WeatherDisplay:10.37,2013-02-18 10:28:00,
2013-02-18 05:29:00,21.4,-0.3,28.24,NE,45,0.0,0.0,38,0.00,CLR,SKC,0.00,WeatherDisplay:10.37,2013-02-18 10:29:00,
2013-02-18 05:31:00,21.2,0.6,28.24,NE,45,0.0,0.0,40,0.00,CLR,SKC,0.00,WeatherDisplay:10.37,2013-02-18 10:31:00,
2013-02-18 05:33:00,21.2,0.6,28.24,NE,45,0.0,0.0,40,0.00,CLR,SKC,0.00,WeatherDisplay:10.37,2013-02-18 10:33:00,
2013-02-18 05:34:00,21.2,0.6,28.24,NE,45,0.0,0.0,40,0.00,CLR,SKC,0.00,WeatherDisplay:10.37,2013-02-18 10:34:00,
2013-02-18 05:36:00,21.4,0.8,28.24,NE,45,0.0,0.0,40,0.00,CLR,SKC,0.00,WeatherDisplay:10.37,2013-02-18 10:36:00,
2013-02-18 05:38:00,21.4,0.8,28.24,NE,45,0.0,0.0,40,0.00,CLR,SKC,0.00,WeatherDisplay:10.37,2013-02-18 10:38:00,
2013-02-18 05:39:00,21.6,0.9,28.24,NE,45,0.0,0.0,40,0.00,CLR,SKC,0.00,WeatherDisplay:10.37,2013-02-18 10:39:00,
2013-02-18 05:41:00,21.6,0.9,28.24,NE,45,0.0,0.0,40,0.00,CLR,SKC,0.00,WeatherDisplay:10.37,2013-02-18 10:41:00,
2013-02-18 05:43:00,21.4,0.8,28.24,NE,45,0.0,0.0,40,0.00,CLR,SKC,0.00,WeatherDisplay:10.37,2013-02-18 10:43:00,
2013-02-18 05:44:00,21.4,0.8,28.25,NE,45,0.0,0.0,40,0.00,CLR,SKC,0.00,WeatherDisplay:10.37,2013-02-18 10:44:00,
2013-02-18 05:47:00,21.4,0.8,28.24,NE,45,0.0,0.0,40,0.00,CLR,SKC,0.00,WeatherDisplay:10.37,2013-02-18 10:47:00,
2013-02-18 05:48:00,21.2,0.6,28.25,NE,45,0.0,0.0,40,0.00,CLR,SKC,0.00,WeatherDisplay:10.37,2013-02-18 10:48:00,
2013-02-18 05:49:00,21.2,0.6,28.24,NE,45,0.0,0.0,40,0.00,CLR,SKC,0.00,WeatherDisplay:10.37,2013-02-18 10:49:00,
2013-02-18 05:52:00,21.2,0.1,28.25,NE,45,0.0,0.0,39,0.00,CLR,SKC,0.00,WeatherDisplay:10.37,2013-02-18 10:52:00,
2013-02-18 05:55:00,21.2,0.1,28.25,NE,45,0.0,0.0,39,0.00,CLR,SKC,0.00,WeatherDisplay:10.37,2013-02-18 10:55:00,
2013-02-18 05:57:00,21.0,-0.1,28.25,NE,45,0.0,0.0,39,0.00,CLR,SKC,0.00,WeatherDisplay:10.37,2013-02-18 10:57:00,
2013-02-18 06:00:00,21.0,-0.1,28.25,NE,45,0.0,0.0,39,0.00,CLR,SKC,0.00,WeatherDisplay:10.37,2013-02-18 11:00:00,
2013-02-18 06:02:00,21.0,-0.1,28.25,NE,45,0.0,0.0,39,0.00,CLR,SKC,0.00,WeatherDisplay:10.37,2013-02-18 11:02:00,
2013-02-18 06:05:00,21.0,-0.1,28.25,NE,45,0.0,0.0,39,0.00,CLR,SKC,0.00,WeatherDisplay:10.37,2013-02-18 11:05:00,
2013-02-18 06:08:00,20.8,0.3,28.25,NE,45,0.0,0.0,40,0.00,CLR,SKC,0.00,WeatherDisplay:10.37,2013-02-18 11:08:00,
2013-02-18 06:10:00,20.8,0.3,28.25,NE,45,0.0,0.0,40,0.00,CLR,SKC,0.00,WeatherDisplay:10.37,2013-02-18 11:10:00,
2013-02-18 06:11:00,20.8,0.3,28.25,NE,45,0.0,0.0,40,0.00,CLR,SKC,0.00,WeatherDisplay:10.37,2013-02-18 11:11:00,
2013-02-18 06:13:00,21.0,0.4,28.25,NE,45,0.0,0.0,40,0.00,CLR,SKC,0.00,WeatherDisplay:10.37,2013-02-18 11:13:00,
2013-02-18 06:16:00,21.0,0.4,28.25,NE,45,0.0,0.0,40,0.00,CLR,SKC,0.00,WeatherDisplay:10.37,2013-02-18 11:16:00,
2013-02-18 06:18:00,21.0,0.4,28.25,NE,45,0.0,0.0,40,0.00,CLR,SKC,0.00,WeatherDisplay:10.37,2013-02-18 11:18:00,
2013-02-18 06:21:00,20.8,0.3,28.25,NE,45,0.0,0.0,40,0.00,CLR,SKC,0.00,WeatherDisplay:10.37,2013-02-18 11:21:00,
2013-02-18 06:23:00,20.8,0.3,28.25,NE,45,0.0,0.0,40,0.00,CLR,SKC,0.00,WeatherDisplay:10.37,2013-02-18 11:23:00,
2013-02-18 06:26:00,20.8,0.8,28.25,NE,45,0.0,0.0,41,0.00,CLR,SKC,0.00,WeatherDisplay:10.37,2013-02-18 11:26:00,
2013-02-18 06:27:00,20.8,0.8,28.25,NE,45,0.0,0.0,41,0.00,CLR,SKC,0.00,WeatherDisplay:10.37,2013-02-18 11:27:00,
2013-02-18 06:29:00,20.8,0.8,28.25,NE,45,0.0,0.0,41,0.00,CLR,SKC,0.00,WeatherDisplay:10.37,2013-02-18 11:29:00,
2013-02-18 06:32:00,20.8,0.8,28.25,NE,45,0.0,0.0,41,0.00,CLR,SKC,0.00,WeatherDisplay:10.37,2013-02-18 11:32:00,
2013-02-18 06:34:00,20.8,0.8,28.25,NE,45,0.0,0.0,41,0.00,CLR,SKC,0.00,WeatherDisplay:10.37,2013-02-18 11:34:00,
2013-02-18 06:37:00,20.8,0.8,28.25,NE,45,0.0,0.0,41,0.00,CLR,SKC,0.00,WeatherDisplay:10.37,2013-02-18 11:37:00,
2013-02-18 06:38:00,20.8,0.8,28.25,NE,45,0.0,0.0,41,0.00,CLR,SKC,0.00,WeatherDisplay:10.37,2013-02-18 11:38:00,
2013-02-18 06:39:00,20.8,1.3,28.25,NE,45,0.0,0.0,42,0.00,CLR,SKC,0.00,WeatherDisplay:10.37,2013-02-18 11:39:00,
2013-02-18 06:42:00,20.8,1.3,28.25,NE,45,0.0,0.0,42,0.00,CLR,SKC,0.00,WeatherDisplay:10.37,2013-02-18 11:42:00,
2013-02-18 06:43:00,20.8,1.8,28.25,NE,45,0.0,0.0,43,0.00,CLR,SKC,0.00,WeatherDisplay:10.37,2013-02-18 11:43:00,
2013-02-18 06:44:00,20.8,1.8,28.25,NE,45,0.0,0.0,43,0.00,CLR,SKC,0.00,WeatherDisplay:10.37,2013-02-18 11:44:00,
2013-02-18 06:47:00,20.8,1.8,28.25,NE,45,0.0,0.0,43,0.00,CLR,SKC,0.00,WeatherDisplay:10.37,2013-02-18 11:47:00,
2013-02-18 06:48:00,20.8,1.8,28.25,NE,45,0.0,0.0,43,0.00,CLR,SKC,0.00,WeatherDisplay:10.37,2013-02-18 11:48:00,
2013-02-18 06:49:00,20.8,1.8,28.25,NE,45,0.0,0.0,43,0.00,CLR,SKC,0.00,WeatherDisplay:10.37,2013-02-18 11:49:00,
2013-02-18 06:53:00,20.8,1.8,28.25,NE,45,0.0,0.0,43,0.00,CLR,SKC,0.00,WeatherDisplay:10.37,2013-02-18 11:53:00,
2013-02-18 06:54:00,20.8,1.8,28.25,NE,45,0.0,0.0,43,0.00,CLR,SKC,0.00,WeatherDisplay:10.37,2013-02-18 11:54:00,
2013-02-18 06:58:00,20.8,1.8,28.25,NE,45,0.0,0.0,43,0.00,CLR,SKC,0.00,WeatherDisplay:10.37,2013-02-18 11:58:00,
2013-02-18 07:00:00,20.8,1.8,28.25,NE,45,0.0,0.0,43,0.00,CLR,SKC,0.00,WeatherDisplay:10.37,2013-02-18 12:00:00,
2013-02-18 07:03:00,20.8,1.8,28.25,NE,45,0.0,0.0,43,0.00,CLR,SKC,0.00,WeatherDisplay:10.37,2013-02-18 12:03:00,
2013-02-18 07:04:00,20.8,1.8,28.25,NE,45,0.0,0.0,43,0.00,CLR,SKC,0.00,WeatherDisplay:10.37,2013-02-18 12:04:00,
2013-02-18 07:05:00,20.8,1.8,28.25,NE,45,0.0,0.0,43,0.00,CLR,SKC,0.00,WeatherDisplay:10.37,2013-02-18 12:05:00,
2013-02-18 07:08:00,20.8,1.8,28.25,NE,45,0.0,0.0,43,0.00,CLR,SKC,0.00,WeatherDisplay:10.37,2013-02-18 12:08:00,
2013-02-18 07:09:00,20.8,1.8,28.25,NE,45,0.0,0.0,43,0.00,CLR,SKC,0.00,WeatherDisplay:10.37,2013-02-18 12:09:00,
2013-02-18 07:10:00,20.8,1.8,28.25,NE,45,0.0,0.0,43,0.00,CLR,SKC,0.00,WeatherDisplay:10.37,2013-02-18 12:10:00,
2013-02-18 07:13:00,20.8,1.8,28.25,NE,45,0.0,0.0,43,0.00,CLR,SKC,0.00,WeatherDisplay:10.37,2013-02-18 12:13:00,
2013-02-18 07:14:00,20.8,1.8,28.25,NE,45,0.0,0.0,43,0.00,CLR,SKC,0.00,WeatherDisplay:10.37,2013-02-18 12:14:00,
2013-02-18 07:15:00,20.8,1.8,28.25,NE,45,0.0,0.0,43,0.00,CLR,SKC,0.00,WeatherDisplay:10.37,2013-02-18 12:15:00,
2013-02-18 07:18:00,20.8,1.8,28.25,NE,45,0.0,0.0,43,0.00,CLR,SKC,0.00,WeatherDisplay:10.37,2013-02-18 12:18:00,
2013-02-18 07:19:00,20.8,2.3,28.25,NE,45,0.0,0.0,44,0.00,CLR,SKC,0.00,WeatherDisplay:10.37,2013-02-18 12:19:00,
2013-02-18 07:20:00,20.8,2.3,28.25,NE,45,0.0,0.0,44,0.00,CLR,SKC,0.00,WeatherDisplay:10.37,2013-02-18 12:20:00,
2013-02-18 07:23:00,20.8,2.3,28.25,NE,45,0.0,0.0,44,0.00,CLR,SKC,0.00,WeatherDisplay:10.37,2013-02-18 12:23:00,
2013-02-18 07:25:00,20.8,1.8,28.25,NE,45,0.0,0.0,43,0.00,CLR,SKC,0.00,WeatherDisplay:10.37,2013-02-18 12:25:00,
2013-02-18 07:28:00,20.8,1.8,28.25,NE,45,0.0,0.0,43,0.00,CLR,SKC,0.00,WeatherDisplay:10.37,2013-02-18 12:28:00,
2013-02-18 07:30:00,20.8,1.8,28.25,NE,45,0.0,0.0,43,0.00,CLR,SKC,0.00,WeatherDisplay:10.37,2013-02-18 12:30:00,
2013-02-18 07:33:00,20.7,1.7,28.26,NE,45,0.0,0.0,43,0.00,CLR,SKC,0.00,WeatherDisplay:10.37,2013-02-18 12:33:00,
2013-02-18 07:35:00,20.7,1.7,28.26,NE,45,0.0,0.0,43,0.00,CLR,SKC,0.00,WeatherDisplay:10.37,2013-02-18 12:35:00,
2013-02-18 07:39:00,20.7,1.7,28.26,NE,45,0.0,0.0,43,0.00,CLR,SKC,0.00,WeatherDisplay:10.37,2013-02-18 12:39:00,
2013-02-18 07:40:00,20.8,1.8,28.26,NE,45,0.0,0.0,43,0.00,CLR,SKC,0.00,WeatherDisplay:10.37,2013-02-18 12:40:00,
2013-02-18 07:44:00,20.8,1.8,28.26,NE,45,0.0,0.0,43,0.00,CLR,SKC,0.00,WeatherDisplay:10.37,2013-02-18 12:44:00,
2013-02-18 07:45:00,20.8,1.8,28.26,NE,45,0.0,0.0,43,0.00,CLR,SKC,0.00,WeatherDisplay:10.37,2013-02-18 12:45:00,
2013-02-18 07:46:00,20.8,1.8,28.26,NE,45,0.0,0.0,43,0.00,CLR,SKC,0.00,WeatherDisplay:10.37,2013-02-18 12:46:00,
2013-02-18 07:49:00,20.8,2.3,28.26,NE,45,0.0,0.0,44,0.00,CLR,SKC,0.00,WeatherDisplay:10.37,2013-02-18 12:49:00,
2013-02-18 07:50:00,20.8,1.8,28.26,NE,45,0.0,0.0,43,0.00,CLR,SKC,0.00,WeatherDisplay:10.37,2013-02-18 12:50:00,
2013-02-18 07:51:00,20.8,1.8,28.26,NE,45,0.0,0.0,43,0.00,CLR,SKC,0.00,WeatherDisplay:10.37,2013-02-18 12:51:00,
2013-02-18 07:54:00,21.0,2.0,28.26,NE,45,0.0,0.0,43,0.00,CLR,SKC,0.00,WeatherDisplay:10.37,2013-02-18 12:54:00,
2013-02-18 07:55:00,21.2,2.6,28.26,NE,45,0.0,0.0,44,0.00,CLR,SKC,0.00,WeatherDisplay:10.37,2013-02-18 12:55:00,
2013-02-18 07:56:00,21.2,2.6,28.26,NE,45,0.0,0.0,44,0.00,CLR,SKC,0.00,WeatherDisplay:10.37,2013-02-18 12:56:00,
2013-02-18 08:00:00,21.4,2.3,28.26,NE,45,0.0,0.0,43,0.00,CLR,SKC,0.00,WeatherDisplay:10.37,2013-02-18 13:00:00,
2013-02-18 08:01:00,21.4,2.3,28.26,NE,45,0.0,0.0,43,0.00,CLR,SKC,0.00,WeatherDisplay:10.37,2013-02-18 13:01:00,
2013-02-18 08:05:00,21.4,2.3,28.26,NE,45,0.0,0.0,43,0.00,CLR,SKC,0.00,WeatherDisplay:10.37,2013-02-18 13:05:00,
2013-02-18 08:06:00,21.4,2.3,28.26,NE,45,0.0,0.0,43,0.00,CLR,SKC,0.00,WeatherDisplay:10.37,2013-02-18 13:06:00,
2013-02-18 08:10:00,21.6,3.0,28.27,NE,45,0.0,0.0,44,0.00,CLR,SKC,0.00,WeatherDisplay:10.37,2013-02-18 13:10:00,
2013-02-18 08:11:00,21.7,3.1,28.27,NE,45,0.0,0.0,44,0.00,CLR,SKC,0.00,WeatherDisplay:10.37,2013-02-18 13:11:00,
2013-02-18 08:15:00,22.1,3.5,28.26,NE,45,0.0,0.0,44,0.00,CLR,SKC,0.00,WeatherDisplay:10.37,2013-02-18 13:15:00,
2013-02-18 08:16:00,22.5,3.8,28.27,NE,45,0.0,0.0,44,0.00,CLR,SKC,0.00,WeatherDisplay:10.37,2013-02-18 13:16:00,
2013-02-18 08:17:00,22.5,3.8,28.27,NE,45,0.0,0.0,44,0.00,CLR,SKC,0.00,WeatherDisplay:10.37,2013-02-18 13:17:00,
2013-02-18 08:21:00,23.0,4.3,28.27,NE,45,0.0,0.0,44,0.00,CLR,SKC,0.00,WeatherDisplay:10.37,2013-02-18 13:21:00,
2013-02-18 08:22:00,23.2,4.0,28.27,NE,45,0.0,0.0,43,0.00,CLR,SKC,0.00,WeatherDisplay:10.37,2013-02-18 13:22:00,
2013-02-18 08:26:00,23.7,4.5,28.27,NE,45,0.0,0.0,43,0.00,CLR,SKC,0.00,WeatherDisplay:10.37,2013-02-18 13:26:00,
2013-02-18 08:27:00,23.9,4.6,28.27,NE,45,0.0,0.0,43,0.00,CLR,SKC,0.00,WeatherDisplay:10.37,2013-02-18 13:27:00,
2013-02-18 08:31:00,25.0,5.6,28.27,SW,225,0.0,0.0,43,0.00,CLR,SKC,0.00,WeatherDisplay:10.37,2013-02-18 13:31:00,
2013-02-18 08:32:00,25.0,5.6,28.27,SW,225,0.0,0.0,43,0.00,CLR,SKC,0.00,WeatherDisplay:10.37,2013-02-18 13:32:00,
2013-02-18 08:37:00,25.0,5.6,28.27,SW,225,0.0,0.0,43,0.00,CLR,SKC,0.00,WeatherDisplay:10.37,2013-02-18 13:37:00,
2013-02-18 08:42:00,26.1,5.0,28.28,SSE,158,2.3,0.0,40,0.00,CLR,SKC,0.00,WeatherDisplay:10.37,2013-02-18 13:42:00,
2013-02-18 08:43:00,26.2,4.6,28.28,SE,135,1.1,0.0,39,0.00,CLR,SKC,0.00,WeatherDisplay:10.37,2013-02-18 13:43:00,
2013-02-18 08:47:00,27.1,4.9,28.27,SE,135,0.0,0.0,38,0.00,CLR,SKC,0.00,WeatherDisplay:10.37,2013-02-18 13:47:00,
2013-02-18 08:48:00,27.1,4.9,28.27,SE,135,0.0,0.0,38,0.00,CLR,SKC,0.00,WeatherDisplay:10.37,2013-02-18 13:48:00,
2013-02-18 08:52:00,28.9,4.0,28.28,SE,135,1.1,0.0,34,0.00,CLR,SKC,0.00,WeatherDisplay:10.37,2013-02-18 13:52:00,
2013-02-18 08:53:00,28.9,4.0,28.28,SE,135,0.0,0.0,34,0.00,CLR,SKC,0.00,WeatherDisplay:10.37,2013-02-18 13:53:00,
2013-02-18 08:57:00,30.2,3.1,28.28,NW,315,0.0,0.0,31,0.00,CLR,SKC,0.00,WeatherDisplay:10.37,2013-02-18 13:57:00,
2013-02-18 08:58:00,30.2,3.1,28.28,NW,315,0.0,0.0,31,0.00,CLR,SKC,0.00,WeatherDisplay:10.37,2013-02-18 13:58:00,
2013-02-18 09:02:00,30.4,1.9,28.28,North,0,1.1,0.0,29,0.00,CLR,SKC,0.00,WeatherDisplay:10.37,2013-02-18 14:02:00,
2013-02-18 09:03:00,30.4,1.9,28.28,North,0,1.1,0.0,29,0.00,CLR,SKC,0.00,WeatherDisplay:10.37,2013-02-18 14:03:00,
2013-02-18 09:07:00,32.5,-1.2,28.28,SE,135,1.1,0.0,23,0.00,CLR,SKC,0.00,WeatherDisplay:10.37,2013-02-18 14:07:00,
2013-02-18 09:08:00,32.5,-1.2,28.28,SE,135,2.3,0.0,23,0.00,CLR,SKC,0.00,WeatherDisplay:10.37,2013-02-18 14:08:00,
2013-02-18 09:12:00,32.7,-4.0,28.28,SE,135,0.0,0.0,20,0.00,CLR,SKC,0.00,WeatherDisplay:10.37,2013-02-18 14:12:00,
2013-02-18 09:13:00,32.7,-4.0,28.28,SE,135,0.0,0.0,20,0.00,CLR,SKC,0.00,WeatherDisplay:10.37,2013-02-18 14:13:00,
2013-02-18 09:18:00,33.1,-4.8,28.28,South,180,1.1,1.6,19,0.00,CLR,SKC,0.00,WeatherDisplay:10.37,2013-02-18 14:18:00,
2013-02-18 09:19:00,33.1,-4.8,28.28,South,180,2.3,0.0,19,0.00,CLR,SKC,0.00,WeatherDisplay:10.37,2013-02-18 14:19:00,
2013-02-18 09:23:00,33.4,-6.8,28.28,South,180,3.5,3.5,17,0.00,CLR,SKC,0.00,WeatherDisplay:10.37,2013-02-18 14:23:00,
2013-02-18 09:24:00,33.4,-6.8,28.28,SE,135,3.5,0.0,17,0.00,CLR,SKC,0.00,WeatherDisplay:10.37,2013-02-18 14:24:00,
2013-02-18 09:28:00,33.3,-8.2,28.27,NW,315,1.1,0.0,16,0.00,CLR,SKC,0.00,WeatherDisplay:10.37,2013-02-18 14:28:00,
2013-02-18 09:29:00,33.4,-6.8,28.27,SW,225,0.0,0.0,17,0.00,CLR,SKC,0.00,WeatherDisplay:10.37,2013-02-18 14:29:00,
2013-02-18 09:33:00,33.6,-7.9,28.27,South,180,1.1,0.0,16,0.00,CLR,SKC,0.00,WeatherDisplay:10.37,2013-02-18 14:33:00,
2013-02-18 09:34:00,33.8,-7.8,28.27,SW,225,1.1,0.0,16,0.00,CLR,SKC,0.00,WeatherDisplay:10.37,2013-02-18 14:34:00,
2013-02-18 09:38:00,34.0,-11.8,28.27,SW,225,1.1,1.6,13,0.00,CLR,SKC,0.00,WeatherDisplay:10.37,2013-02-18 14:38:00,
2013-02-18 09:39:00,34.2,-10.2,28.27,South,180,2.3,0.0,14,0.00,CLR,SKC,0.00,WeatherDisplay:10.37,2013-02-18 14:39:00,
2013-02-18 09:43:00,34.3,-11.5,28.27,South,180,2.3,2.3,13,0.00,CLR,SKC,0.00,WeatherDisplay:10.37,2013-02-18 14:43:00,
2013-02-18 09:44:00,34.5,-13.0,28.27,SE,135,3.1,3.1,12,0.00,CLR,SKC,0.00,WeatherDisplay:10.37,2013-02-18 14:44:00,
2013-02-18 09:48:00,35.2,-12.4,28.28,South,180,3.5,0.0,12,0.00,CLR,SKC,0.00,WeatherDisplay:10.37,2013-02-18 14:48:00,
2013-02-18 09:50:00,35.4,-12.3,28.27,SE,135,2.3,2.3,12,0.00,CLR,SKC,0.00,WeatherDisplay:10.37,2013-02-18 14:50:00,
2013-02-18 09:53:00,36.1,-15.3,28.27,SW,225,4.6,0.0,10,0.00,CLR,SKC,0.00,WeatherDisplay:10.37,2013-02-18 14:53:00,
2013-02-18 09:55:00,36.3,-15.2,28.28,SW,225,1.1,0.0,10,0.00,CLR,SKC,0.00,WeatherDisplay:10.37,2013-02-18 14:55:00,
2013-02-18 09:58:00,37.4,-14.4,28.28,South,180,2.3,0.0,10,0.00,CLR,SKC,0.00,WeatherDisplay:10.37,2013-02-18 14:58:00,
2013-02-18 10:00:00,37.8,-14.1,28.27,SE,135,1.1,0.0,10,0.00,CLR,SKC,0.00,WeatherDisplay:10.37,2013-02-18 15:00:00,
2013-02-18 10:04:00,37.9,-13.9,28.28,WSW,248,1.1,0.0,10,0.00,CLR,SKC,0.00,WeatherDisplay:10.37,2013-02-18 15:04:00,
2013-02-18 10:05:00,37.9,-13.9,28.27,WSW,248,1.1,0.0,10,0.00,CLR,SKC,0.00,WeatherDisplay:10.37,2013-02-18 15:05:00,
2013-02-18 10:09:00,40.1,-12.3,28.28,South,180,2.3,2.3,10,0.00,CLR,SKC,0.00,WeatherDisplay:10.37,2013-02-18 15:09:00,
2013-02-18 10:10:00,40.3,-12.1,28.28,SE,135,3.5,3.5,10,0.00,CLR,SKC,0.00,WeatherDisplay:10.37,2013-02-18 15:10:00,
2013-02-18 10:14:00,40.6,-11.8,28.27,South,180,3.5,3.5,10,0.00,CLR,SKC,0.00,WeatherDisplay:10.37,2013-02-18 15:14:00,
2013-02-18 10:15:00,40.8,-11.7,28.28,South,180,3.5,0.0,10,0.00,CLR,SKC,0.00,WeatherDisplay:10.37,2013-02-18 15:15:00,
2013-02-18 10:19:00,41.2,-11.4,28.28,SW,225,2.3,2.3,10,0.00,CLR,SKC,0.00,WeatherDisplay:10.37,2013-02-18 15:19:00,
2013-02-18 10:20:00,41.4,-11.3,28.28,SW,225,2.3,0.0,10,0.00,CLR,SKC,0.00,WeatherDisplay:10.37,2013-02-18 15:20:00,
2013-02-18 10:24:00,41.9,-10.9,28.27,South,180,3.5,3.5,10,0.00,CLR,SKC,0.00,WeatherDisplay:10.37,2013-02-18 15:24:00,
2013-02-18 10:25:00,42.1,-10.7,28.27,South,180,3.5,3.5,10,0.00,CLR,SKC,0.00,WeatherDisplay:10.37,2013-02-18 15:25:00,
2013-02-18 10:30:00,42.4,-10.4,28.27,SW,225,1.1,0.0,10,0.00,CLR,SKC,0.00,WeatherDisplay:10.37,2013-02-18 15:30:00,
2013-02-18 10:31:00,42.8,-10.2,28.27,SE,135,1.1,0.0,10,0.00,CLR,SKC,0.00,WeatherDisplay:10.37,2013-02-18 15:31:00,
2013-02-18 10:35:00,44.1,-9.2,28.27,South,180,3.5,3.5,10,0.00,CLR,SKC,0.00,WeatherDisplay:10.37,2013-02-18 15:35:00,
2013-02-18 10:36:00,44.1,-9.2,28.27,South,180,3.5,3.5,10,0.00,CLR,SKC,0.00,WeatherDisplay:10.37,2013-02-18 15:36:00,
2013-02-18 10:40:00,45.5,-8.1,28.27,South,180,2.3,0.0,10,0.00,CLR,SKC,0.00,WeatherDisplay:10.37,2013-02-18 15:40:00,
2013-02-18 10:41:00,45.5,-8.1,28.27,South,180,1.1,0.0,10,0.00,CLR,SKC,0.00,WeatherDisplay:10.37,2013-02-18 15:41:00,
2013-02-18 10:45:00,47.1,-6.8,28.27,SE,135,0.0,0.0,10,0.00,CLR,SKC,0.00,WeatherDisplay:10.37,2013-02-18 15:45:00,
2013-02-18 10:46:00,47.5,-6.5,28.27,NW,315,0.0,0.0,10,0.00,CLR,SKC,0.00,WeatherDisplay:10.37,2013-02-18 15:46:00,
2013-02-18 10:47:00,47.8,-6.2,28.27,SE,135,3.5,3.5,10,0.00,CLR,SKC,0.00,WeatherDisplay:10.37,2013-02-18 15:47:00,
2013-02-18 10:50:00,48.0,-6.1,28.27,SW,225,5.8,5.8,10,0.00,CLR,SKC,0.00,WeatherDisplay:10.37,2013-02-18 15:50:00,
2013-02-18 10:51:00,47.8,-6.2,28.27,SSW,202,3.5,3.5,10,0.00,CLR,SKC,0.00,WeatherDisplay:10.37,2013-02-18 15:51:00,
2013-02-18 10:52:00,47.8,-6.2,28.27,SSW,202,4.6,4.6,10,0.00,CLR,SKC,0.00,WeatherDisplay:10.37,2013-02-18 15:52:00,
2013-02-18 10:56:00,47.7,-6.4,28.27,SW,225,2.3,0.0,10,0.00,CLR,SKC,0.00,WeatherDisplay:10.37,2013-02-18 15:56:00,
2013-02-18 10:57:00,47.7,-6.4,28.27,South,180,4.6,4.6,10,0.00,CLR,SKC,0.00,WeatherDisplay:10.37,2013-02-18 15:57:00,
2013-02-18 11:01:00,48.4,-5.8,28.26,ENE,68,1.6,0.0,10,0.00,CLR,SKC,0.00,WeatherDisplay:10.37,2013-02-18 16:01:00,
2013-02-18 11:02:00,48.4,-5.8,28.26,ENE,68,1.1,0.0,10,0.00,CLR,SKC,0.00,WeatherDisplay:10.37,2013-02-18 16:02:00,
2013-02-18 11:06:00,48.4,-5.8,28.27,ENE,68,1.1,0.0,10,0.00,CLR,SKC,0.00,WeatherDisplay:10.37,2013-02-18 16:06:00,
2013-02-18 11:07:00,48.4,-5.8,28.27,ENE,68,1.1,0.0,10,0.00,CLR,SKC,0.00,WeatherDisplay:10.37,2013-02-18 16:07:00,
2013-02-18 11:11:00,50.4,-4.3,28.26,West,270,3.5,3.5,10,0.00,CLR,SKC,0.00,WeatherDisplay:10.37,2013-02-18 16:11:00,
2013-02-18 11:12:00,50.5,-4.1,28.27,NW,315,3.5,3.5,10,0.00,CLR,SKC,0.00,WeatherDisplay:10.37,2013-02-18 16:12:00,
2013-02-18 11:16:00,50.9,-3.9,28.26,SW,225,3.5,3.5,10,0.00,CLR,SKC,0.00,WeatherDisplay:10.37,2013-02-18 16:16:00,
2013-02-18 11:17:00,50.9,-3.9,28.26,SW,225,4.6,4.6,10,0.00,CLR,SKC,0.00,WeatherDisplay:10.37,2013-02-18 16:17:00,
2013-02-18 11:21:00,51.4,-3.4,28.26,North,0,3.5,0.0,10,0.00,CLR,SKC,0.00,WeatherDisplay:10.37,2013-02-18 16:21:00,
2013-02-18 11:22:00,51.4,-3.4,28.26,South,180,3.5,0.0,10,0.00,CLR,SKC,0.00,WeatherDisplay:10.37,2013-02-18 16:22:00,
2013-02-18 11:27:00,52.0,-3.0,28.26,SW,225,3.5,3.5,10,0.00,CLR,SKC,0.00,WeatherDisplay:10.37,2013-02-18 16:27:00,
2013-02-18 11:29:00,52.0,-3.0,28.26,SW,225,3.5,0.0,10,0.00,CLR,SKC,0.00,WeatherDisplay:10.37,2013-02-18 16:29:00,
2013-02-18 11:32:00,51.4,-3.4,28.26,South,180,4.6,4.6,10,0.00,CLR,SKC,0.00,WeatherDisplay:10.37,2013-02-18 16:32:00,
2013-02-18 11:34:00,50.9,-3.9,28.26,SE,135,5.8,0.0,10,0.00,CLR,SKC,0.00,WeatherDisplay:10.37,2013-02-18 16:34:00,
2013-02-18 11:37:00,50.9,-3.9,28.26,SW,225,3.5,3.5,10,0.00,CLR,SKC,0.00,WeatherDisplay:10.37,2013-02-18 16:37:00,
2013-02-18 11:39:00,51.1,-3.7,28.25,SW,225,1.1,0.0,10,0.00,CLR,SKC,0.00,WeatherDisplay:10.37,2013-02-18 16:39:00,
2013-02-18 11:42:00,51.3,-3.6,28.26,SW,225,4.6,4.6,10,0.00,CLR,SKC,0.00,WeatherDisplay:10.37,2013-02-18 16:42:00,
2013-02-18 11:44:00,51.3,-3.6,28.26,SW,225,5.8,5.8,10,0.00,CLR,SKC,0.00,WeatherDisplay:10.37,2013-02-18 16:44:00,
2013-02-18 11:47:00,51.4,-3.4,28.26,NE,45,4.6,0.0,10,0.00,CLR,SKC,0.00,WeatherDisplay:10.37,2013-02-18 16:47:00,
2013-02-18 11:48:00,51.6,-3.3,28.25,West,270,2.3,2.3,10,0.00,CLR,SKC,0.00,WeatherDisplay:10.37,2013-02-18 16:48:00,
2013-02-18 11:49:00,52.0,-3.0,28.25,NW,315,4.6,4.6,10,0.00,CLR,SKC,0.00,WeatherDisplay:10.37,2013-02-18 16:49:00,
2013-02-18 11:52:00,52.2,-2.9,28.25,SW,225,5.8,5.8,10,0.00,CLR,SKC,0.00,WeatherDisplay:10.37,2013-02-18 16:52:00,
2013-02-18 11:53:00,52.0,-3.0,28.25,SW,225,6.9,6.9,10,0.00,CLR,SKC,0.00,WeatherDisplay:10.37,2013-02-18 16:53:00,
2013-02-18 11:54:00,52.2,-2.9,28.25,South,180,6.9,6.9,10,0.00,CLR,SKC,0.00,WeatherDisplay:10.37,2013-02-18 16:54:00,
2013-02-18 11:57:00,52.3,-2.8,28.25,NW,315,4.6,4.6,10,0.00,CLR,SKC,0.00,WeatherDisplay:10.37,2013-02-18 16:57:00,
2013-02-18 11:58:00,52.3,-2.8,28.25,NW,315,5.8,5.8,10,0.00,CLR,SKC,0.00,WeatherDisplay:10.37,2013-02-18 16:58:00,
2013-02-18 11:59:00,52.3,-2.8,28.25,SW,225,5.8,5.8,10,0.00,CLR,SKC,0.00,WeatherDisplay:10.37,2013-02-18 16:59:00,
2013-02-18 12:02:00,52.5,-2.6,28.25,SE,135,3.5,3.5,10,0.00,CLR,SKC,0.00,WeatherDisplay:10.37,2013-02-18 17:02:00,
2013-02-18 12:03:00,52.5,-2.6,28.25,SE,135,3.5,3.5,10,0.00,CLR,SKC,0.00,WeatherDisplay:10.37,2013-02-18 17:03:00,
2013-02-18 12:04:00,52.5,-2.6,28.25,SE,135,3.5,3.5,10,0.00,CLR,SKC,0.00,WeatherDisplay:10.37,2013-02-18 17:04:00,
2013-02-18 12:08:00,53.6,-1.8,28.24,West,270,4.6,4.6,10,0.00,CLR,SKC,0.00,WeatherDisplay:10.37,2013-02-18 17:08:00,
2013-02-18 12:10:00,53.6,-1.8,28.25,SSW,202,5.8,5.8,10,0.00,CLR,SKC,0.00,WeatherDisplay:10.37,2013-02-18 17:10:00,
2013-02-18 12:13:00,53.1,-2.2,28.25,SW,225,6.9,6.9,10,0.00,CLR,SKC,0.00,WeatherDisplay:10.37,2013-02-18 17:13:00,
2013-02-18 12:15:00,53.1,-2.2,28.24,South,180,8.1,8.1,10,0.00,CLR,SKC,0.00,WeatherDisplay:10.37,2013-02-18 17:15:00,
2013-02-18 12:19:00,53.2,-2.1,28.24,South,180,8.1,8.1,10,0.00,CLR,SKC,0.00,WeatherDisplay:10.37,2013-02-18 17:19:00,
2013-02-18 12:20:00,53.2,-2.1,28.24,SE,135,8.1,8.1,10,0.00,CLR,SKC,0.00,WeatherDisplay:10.37,2013-02-18 17:20:00,
2013-02-18 12:24:00,53.6,-1.8,28.24,SW,225,6.9,6.9,10,0.00,CLR,SKC,0.00,WeatherDisplay:10.37,2013-02-18 17:24:00,
2013-02-18 12:25:00,53.6,-1.8,28.23,NW,315,6.9,6.9,10,0.00,CLR,SKC,0.00,WeatherDisplay:10.37,2013-02-18 17:25:00,
2013-02-18 12:29:00,53.2,-2.1,28.23,South,180,5.8,5.8,10,0.00,CLR,SKC,0.00,WeatherDisplay:10.37,2013-02-18 17:29:00,
2013-02-18 12:30:00,53.1,-2.2,28.23,SW,225,5.8,5.8,10,0.00,CLR,SKC,0.00,WeatherDisplay:10.37,2013-02-18 17:30:00,
2013-02-18 12:34:00,53.1,-2.2,28.22,South,180,4.6,4.6,10,0.00,CLR,SKC,0.00,WeatherDisplay:10.37,2013-02-18 17:34:00,
2013-02-18 12:35:00,53.1,-2.2,28.22,NE,45,5.8,0.0,10,0.00,CLR,SKC,0.00,WeatherDisplay:10.37,2013-02-18 17:35:00,
2013-02-18 12:39:00,53.6,-1.8,28.22,West,270,3.5,3.5,10,0.00,CLR,SKC,0.00,WeatherDisplay:10.37,2013-02-18 17:39:00,
2013-02-18 12:40:00,54.0,-1.5,28.22,SE,135,5.8,0.0,10,0.00,CLR,SKC,0.00,WeatherDisplay:10.37,2013-02-18 17:40:00,
2013-02-18 12:44:00,54.1,-1.4,28.22,South,180,5.8,5.8,10,0.00,CLR,SKC,0.00,WeatherDisplay:10.37,2013-02-18 17:44:00,
2013-02-18 12:46:00,54.0,-1.5,28.22,SW,225,5.8,5.8,10,0.00,CLR,SKC,0.00,WeatherDisplay:10.37,2013-02-18 17:46:00,
2013-02-18 12:49:00,54.0,-1.5,28.22,SW,225,5.8,5.8,10,0.00,CLR,SKC,0.00,WeatherDisplay:10.37,2013-02-18 17:49:00,
2013-02-18 12:51:00,54.0,-1.5,28.22,NE,45,5.8,5.8,10,0.00,CLR,SKC,0.00,WeatherDisplay:10.37,2013-02-18 17:51:00,
2013-02-18 12:54:00,54.5,-1.1,28.22,SSW,202,4.6,4.6,10,0.00,CLR,SKC,0.00,WeatherDisplay:10.37,2013-02-18 17:54:00,
2013-02-18 12:55:00,54.7,-0.9,28.22,SE,135,4.6,4.6,10,0.00,CLR,SKC,0.00,WeatherDisplay:10.37,2013-02-18 17:55:00,
2013-02-18 12:56:00,54.9,-0.8,28.22,NW,315,5.8,5.8,10,0.00,CLR,SKC,0.00,WeatherDisplay:10.37,2013-02-18 17:56:00,
2013-02-18 12:59:00,54.9,-0.8,28.21,West,270,4.6,4.6,10,0.00,CLR,SKC,0.00,WeatherDisplay:10.37,2013-02-18 17:59:00,
2013-02-18 13:00:00,54.9,-0.8,28.21,West,270,4.6,4.6,10,0.00,CLR,SKC,0.00,WeatherDisplay:10.37,2013-02-18 18:00:00,
2013-02-18 13:01:00,54.9,-0.8,28.21,NE,45,4.6,0.0,10,0.00,CLR,SKC,0.00,WeatherDisplay:10.37,2013-02-18 18:01:00,
2013-02-18 13:05:00,54.9,-0.8,28.21,NE,45,1.1,0.0,10,0.00,CLR,SKC,0.00,WeatherDisplay:10.37,2013-02-18 18:05:00,
2013-02-18 13:06:00,54.9,-0.8,28.21,NE,45,1.1,0.0,10,0.00,CLR,SKC,0.00,WeatherDisplay:10.37,2013-02-18 18:06:00,
2013-02-18 13:10:00,55.6,-0.2,28.20,West,270,5.8,5.8,10,0.00,CLR,SKC,0.00,WeatherDisplay:10.37,2013-02-18 18:10:00,
2013-02-18 13:11:00,55.8,-0.1,28.20,SW,225,4.6,4.6,10,0.00,CLR,SKC,0.00,WeatherDisplay:10.37,2013-02-18 18:11:00,
2013-02-18 13:15:00,56.1,0.2,28.20,West,270,5.8,5.8,10,0.00,CLR,SKC,0.00,WeatherDisplay:10.37,2013-02-18 18:15:00,
2013-02-18 13:17:00,56.1,0.2,28.20,WSW,248,5.8,5.8,10,0.00,CLR,SKC,0.00,WeatherDisplay:10.37,2013-02-18 18:17:00,
2013-02-18 13:20:00,56.3,0.3,28.19,SW,225,5.8,5.8,10,0.00,CLR,SKC,0.00,WeatherDisplay:10.37,2013-02-18 18:20:00,
2013-02-18 13:23:00,56.7,0.6,28.19,WSW,248,10.4,10.4,10,0.00,CLR,SKC,0.00,WeatherDisplay:10.37,2013-02-18 18:23:00,
2013-02-18 13:25:00,56.3,0.3,28.19,WSW,248,8.1,8.1,10,0.00,CLR,SKC,0.00,WeatherDisplay:10.37,2013-02-18 18:25:00,
2013-02-18 13:26:00,56.1,0.2,28.19,SSW,202,5.8,5.8,10,0.00,CLR,SKC,0.00,WeatherDisplay:10.37,2013-02-18 18:26:00,
2013-02-18 13:28:00,56.3,0.3,28.19,SW,225,5.8,0.0,10,0.00,CLR,SKC,0.00,WeatherDisplay:10.37,2013-02-18 18:28:00,
2013-02-18 13:31:00,56.8,0.7,28.19,SW,225,3.5,0.0,10,0.00,CLR,SKC,0.00,WeatherDisplay:10.37,2013-02-18 18:31:00,
2013-02-18 13:34:00,57.4,1.1,28.18,SE,135,8.1,8.1,10,0.00,CLR,SKC,0.00,WeatherDisplay:10.37,2013-02-18 18:34:00,
2013-02-18 13:36:00,57.4,1.1,28.18,SE,135,5.8,5.8,10,0.00,CLR,SKC,0.00,WeatherDisplay:10.37,2013-02-18 18:36:00,
2013-02-18 13:39:00,56.8,0.7,28.19,SW,225,8.1,8.1,10,0.00,CLR,SKC,0.00,WeatherDisplay:10.37,2013-02-18 18:39:00,
2013-02-18 13:41:00,56.3,0.3,28.18,West,270,8.1,8.1,10,0.00,CLR,SKC,0.00,WeatherDisplay:10.37,2013-02-18 18:41:00,
2013-02-18 13:44:00,56.7,0.6,28.18,NW,315,5.8,5.8,10,0.00,CLR,SKC,0.00,WeatherDisplay:10.37,2013-02-18 18:44:00,
2013-02-18 13:46:00,56.8,0.7,28.18,WNW,292,6.9,6.9,10,0.00,CLR,SKC,0.00,WeatherDisplay:10.37,2013-02-18 18:46:00,
2013-02-18 13:49:00,57.0,0.9,28.17,SW,225,4.6,4.6,10,0.00,CLR,SKC,0.00,WeatherDisplay:10.37,2013-02-18 18:49:00,
2013-02-18 13:51:00,57.6,1.3,28.17,SSW,202,5.8,5.8,10,0.00,CLR,SKC,0.00,WeatherDisplay:10.37,2013-02-18 18:51:00,
2013-02-18 13:54:00,58.1,1.7,28.17,SE,135,5.8,5.8,10,0.00,CLR,SKC,0.00,WeatherDisplay:10.37,2013-02-18 18:54:00,
2013-02-18 13:56:00,58.3,1.8,28.17,South,180,6.9,6.9,10,0.00,CLR,SKC,0.00,WeatherDisplay:10.37,2013-02-18 18:56:00,
2013-02-18 13:57:00,58.5,2.0,28.17,West,270,6.9,6.9,10,0.00,CLR,SKC,0.00,WeatherDisplay:10.37,2013-02-18 18:57:00,
2013-02-18 14:00:00,58.3,1.8,28.17,NW,315,4.6,4.6,10,0.00,CLR,SKC,0.00,WeatherDisplay:10.37,2013-02-18 19:00:00,
2013-02-18 14:02:00,58.3,1.8,28.17,West,270,3.5,0.0,10,0.00,CLR,SKC,0.00,WeatherDisplay:10.37,2013-02-18 19:02:00,
2013-02-18 14:05:00,58.3,1.8,28.16,West,270,3.5,0.0,10,0.00,CLR,SKC,0.00,WeatherDisplay:10.37,2013-02-18 19:05:00,
2013-02-18 14:07:00,58.3,1.8,28.17,West,270,3.5,0.0,10,0.00,CLR,SKC,0.00,WeatherDisplay:10.37,2013-02-18 19:07:00,
2013-02-18 14:10:00,59.0,2.4,28.17,South,180,8.1,8.1,10,0.00,CLR,SKC,0.00,WeatherDisplay:10.37,2013-02-18 19:10:00,
2013-02-18 14:12:00,58.5,2.0,28.17,South,180,8.1,8.1,10,0.00,CLR,SKC,0.00,WeatherDisplay:10.37,2013-02-18 19:12:00,
2013-02-18 14:15:00,57.9,1.6,28.17,South,180,5.8,5.8,10,0.00,CLR,SKC,0.00,WeatherDisplay:10.37,2013-02-18 19:15:00,
2013-02-18 14:17:00,58.3,1.8,28.16,SW,225,8.1,8.1,10,0.00,CLR,SKC,0.00,WeatherDisplay:10.37,2013-02-18 19:17:00,
2013-02-18 14:20:00,57.9,1.6,28.16,SSW,202,6.9,6.9,10,0.00,CLR,SKC,0.00,WeatherDisplay:10.37,2013-02-18 19:20:00,
2013-02-18 14:22:00,57.7,1.4,28.16,SE,135,6.9,6.9,10,0.00,CLR,SKC,0.00,WeatherDisplay:10.37,2013-02-18 19:22:00,
2013-02-18 14:25:00,57.9,1.6,28.15,SW,225,9.2,9.2,10,0.00,CLR,SKC,0.00,WeatherDisplay:10.37,2013-02-18 19:25:00,
2013-02-18 14:27:00,57.9,1.6,28.15,West,270,6.9,6.9,10,0.00,CLR,SKC,0.00,WeatherDisplay:10.37,2013-02-18 19:27:00,
2013-02-18 14:30:00,58.1,1.7,28.16,South,180,8.1,8.1,10,0.00,CLR,SKC,0.00,WeatherDisplay:10.37,2013-02-18 19:30:00,
2013-02-18 14:32:00,58.3,1.8,28.15,SW,225,6.9,6.9,10,0.00,CLR,SKC,0.00,WeatherDisplay:10.37,2013-02-18 19:32:00,
2013-02-18 14:33:00,58.3,1.8,28.15,SW,225,5.8,5.8,10,0.00,CLR,SKC,0.00,WeatherDisplay:10.37,2013-02-18 19:33:00,
2013-02-18 14:35:00,58.6,2.1,28.16,SSW,202,9.2,9.2,10,0.00,CLR,SKC,0.00,WeatherDisplay:10.37,2013-02-18 19:35:00,
2013-02-18 14:38:00,59.4,2.7,28.16,South,180,3.5,3.5,10,0.00,CLR,SKC,0.00,WeatherDisplay:10.37,2013-02-18 19:38:00,
2013-02-18 14:40:00,59.7,2.9,28.15,South,180,4.6,4.6,10,0.00,CLR,SKC,0.00,WeatherDisplay:10.37,2013-02-18 19:40:00,
2013-02-18 14:43:00,59.9,3.1,28.15,South,180,4.6,4.6,10,0.00,CLR,SKC,0.00,WeatherDisplay:10.37,2013-02-18 19:43:00,
2013-02-18 14:45:00,60.3,3.4,28.15,South,180,5.8,5.8,10,0.00,CLR,SKC,0.00,WeatherDisplay:10.37,2013-02-18 19:45:00,
2013-02-18 14:48:00,60.1,3.2,28.15,South,180,9.2,9.2,10,0.00,CLR,SKC,0.00,WeatherDisplay:10.37,2013-02-18 19:48:00,
2013-02-18 14:51:00,60.1,3.2,28.14,SE,135,9.2,9.2,10,0.00,CLR,SKC,0.00,WeatherDisplay:10.37,2013-02-18 19:51:00,
2013-02-18 14:53:00,59.9,3.1,28.15,SE,135,6.9,6.9,10,0.00,CLR,SKC,0.00,WeatherDisplay:10.37,2013-02-18 19:53:00,
2013-02-18 14:56:00,59.7,2.9,28.14,SE,135,6.9,6.9,10,0.00,CLR,SKC,0.00,WeatherDisplay:10.37,2013-02-18 19:56:00,
2013-02-18 14:58:00,59.7,2.9,28.14,SSW,202,5.8,5.8,10,0.00,CLR,SKC,0.00,WeatherDisplay:10.37,2013-02-18 19:58:00,
2013-02-18 15:01:00,59.9,3.1,28.14,NE,45,6.9,6.9,10,0.00,CLR,SKC,0.00,WeatherDisplay:10.37,2013-02-18 20:01:00,
2013-02-18 15:03:00,59.9,3.1,28.14,NE,45,6.9,6.9,10,0.00,CLR,SKC,0.00,WeatherDisplay:10.37,2013-02-18 20:03:00,
2013-02-18 15:06:00,59.9,3.1,28.14,NE,45,6.9,6.9,10,0.00,CLR,SKC,0.00,WeatherDisplay:10.37,2013-02-18 20:06:00,
2013-02-18 15:08:00,60.3,3.4,28.14,East,90,9.2,9.2,10,0.00,CLR,SKC,0.00,WeatherDisplay:10.37,2013-02-18 20:08:00,
2013-02-18 15:11:00,60.3,3.4,28.14,SW,225,8.1,8.1,10,0.00,CLR,SKC,0.00,WeatherDisplay:10.37,2013-02-18 20:11:00,
2013-02-18 15:13:00,59.9,3.1,28.14,SW,225,11.5,11.5,10,0.00,CLR,SKC,0.00,WeatherDisplay:10.37,2013-02-18 20:13:00,
2013-02-18 15:14:00,59.9,3.1,28.14,SW,225,11.5,11.5,10,0.00,CLR,SKC,0.00,WeatherDisplay:10.37,2013-02-18 20:14:00,
2013-02-18 15:16:00,59.4,2.7,28.13,South,180,9.2,9.2,10,0.00,CLR,SKC,0.00,WeatherDisplay:10.37,2013-02-18 20:16:00,
2013-02-18 15:18:00,59.0,2.4,28.13,SE,135,11.5,11.5,10,0.00,CLR,SKC,0.00,WeatherDisplay:10.37,2013-02-18 20:18:00,
2013-02-18 15:19:00,59.0,2.4,28.13,SE,135,11.5,11.5,10,0.00,CLR,SKC,0.00,WeatherDisplay:10.37,2013-02-18 20:19:00,
2013-02-18 15:21:00,58.6,2.1,28.13,SE,135,8.1,8.1,10,0.00,CLR,SKC,0.00,WeatherDisplay:10.37,2013-02-18 20:21:00,
2013-02-18 15:24:00,60.6,3.6,28.13,South,180,6.9,6.9,10,0.00,CLR,SKC,0.00,WeatherDisplay:10.37,2013-02-18 20:24:00,
2013-02-18 15:26:00,59.0,2.4,28.13,South,180,8.1,8.1,10,0.00,CLR,SKC,0.00,WeatherDisplay:10.37,2013-02-18 20:26:00,
2013-02-18 15:29:00,59.5,2.8,28.14,SW,225,6.9,6.9,10,0.00,CLR,SKC,0.00,WeatherDisplay:10.37,2013-02-18 20:29:00,
2013-02-18 15:31:00,59.7,2.9,28.14,South,180,5.8,5.8,10,0.00,CLR,SKC,0.00,WeatherDisplay:10.37,2013-02-18 20:31:00,
2013-02-18 15:34:00,59.2,2.5,28.13,South,180,8.1,8.1,10,0.00,CLR,SKC,0.00,WeatherDisplay:10.37,2013-02-18 20:34:00,
2013-02-18 15:36:00,59.4,2.7,28.14,South,180,8.1,8.1,10,0.00,CLR,SKC,0.00,WeatherDisplay:10.37,2013-02-18 20:36:00,
2013-02-18 15:39:00,59.4,2.7,28.14,South,180,4.6,4.6,10,0.00,CLR,SKC,0.00,WeatherDisplay:10.37,2013-02-18 20:39:00,
2013-02-18 15:41:00,59.2,2.5,28.14,SE,135,8.1,8.1,10,0.00,CLR,SKC,0.00,WeatherDisplay:10.37,2013-02-18 20:41:00,
2013-02-18 15:44:00,58.8,2.3,28.14,SW,225,9.2,9.2,10,0.00,CLR,SKC,0.00,WeatherDisplay:10.37,2013-02-18 20:44:00,
2013-02-18 15:47:00,58.8,2.3,28.14,South,180,12.7,12.7,10,0.00,CLR,SKC,0.00,WeatherDisplay:10.37,2013-02-18 20:47:00,
2013-02-18 15:49:00,58.5,2.0,28.14,SW,225,8.1,8.1,10,0.00,CLR,SKC,0.00,WeatherDisplay:10.37,2013-02-18 20:49:00,
2013-02-18 15:52:00,58.1,1.7,28.14,South,180,9.2,9.2,10,0.00,CLR,SKC,0.00,WeatherDisplay:10.37,2013-02-18 20:52:00,
2013-02-18 15:54:00,58.1,1.7,28.14,SW,225,8.1,8.1,10,0.00,CLR,SKC,0.00,WeatherDisplay:10.37,2013-02-18 20:54:00,
2013-02-18 15:57:00,57.6,1.3,28.14,SE,135,12.7,12.7,10,0.00,CLR,SKC,0.00,WeatherDisplay:10.37,2013-02-18 20:57:00,
2013-02-18 15:59:00,57.2,1.0,28.14,SSW,202,8.1,8.1,10,0.00,CLR,SKC,0.00,WeatherDisplay:10.37,2013-02-18 20:59:00,
2013-02-18 16:00:00,57.2,1.0,28.14,SSW,202,8.1,8.1,10,0.00,CLR,SKC,0.00,WeatherDisplay:10.37,2013-02-18 21:00:00,
2013-02-18 16:02:00,57.2,1.0,28.14,SSW,202,6.9,6.9,10,0.00,CLR,SKC,0.00,WeatherDisplay:10.37,2013-02-18 21:02:00,
2013-02-18 16:04:00,57.2,1.0,28.14,SSW,202,6.9,6.9,10,0.00,CLR,SKC,0.00,WeatherDisplay:10.37,2013-02-18 21:04:00,
2013-02-18 16:05:00,57.2,1.0,28.14,SSW,202,6.9,6.9,10,0.00,CLR,SKC,0.00,WeatherDisplay:10.37,2013-02-18 21:05:00,
2013-02-18 16:07:00,57.2,1.0,28.14,SSW,202,6.9,6.9,10,0.00,CLR,SKC,0.00,WeatherDisplay:10.37,2013-02-18 21:07:00,
2013-02-18 16:10:00,57.7,1.4,28.14,NW,315,10.4,10.4,10,0.00,CLR,SKC,0.00,WeatherDisplay:10.37,2013-02-18 21:10:00,
2013-02-18 16:12:00,57.7,1.4,28.14,SE,135,8.1,8.1,10,0.00,CLR,SKC,0.00,WeatherDisplay:10.37,2013-02-18 21:12:00,
2013-02-18 16:15:00,57.7,1.4,28.14,South,180,12.7,12.7,10,0.00,CLR,SKC,0.00,WeatherDisplay:10.37,2013-02-18 21:15:00,
2013-02-18 16:17:00,57.6,1.3,28.13,South,180,10.4,10.4,10,0.00,CLR,SKC,0.00,WeatherDisplay:10.37,2013-02-18 21:17:00,
2013-02-18 16:20:00,57.2,1.0,28.13,West,270,11.5,11.5,10,0.00,CLR,SKC,0.00,WeatherDisplay:10.37,2013-02-18 21:20:00,
2013-02-18 16:22:00,56.8,0.7,28.13,SW,225,9.2,9.2,10,0.00,CLR,SKC,0.00,WeatherDisplay:10.37,2013-02-18 21:22:00,
2013-02-18 16:25:00,56.8,0.7,28.13,SSW,202,11.5,11.5,10,0.00,CLR,SKC,0.00,WeatherDisplay:10.37,2013-02-18 21:25:00,
2013-02-18 16:29:00,57.2,1.0,28.14,SW,225,8.1,8.1,10,0.00,CLR,SKC,0.00,WeatherDisplay:10.37,2013-02-18 21:29:00,
2013-02-18 16:30:00,57.4,1.1,28.13,SW,225,10.4,10.4,10,0.00,CLR,SKC,0.00,WeatherDisplay:10.37,2013-02-18 21:30:00,
2013-02-18 16:34:00,57.6,1.3,28.13,SW,225,10.4,10.4,10,0.00,CLR,SKC,0.00,WeatherDisplay:10.37,2013-02-18 21:34:00,
2013-02-18 16:35:00,57.6,1.3,28.13,South,180,9.2,9.2,10,0.00,CLR,SKC,0.00,WeatherDisplay:10.37,2013-02-18 21:35:00,
2013-02-18 16:36:00,57.6,1.3,28.13,SW,225,9.2,9.2,10,0.00,CLR,SKC,0.00,WeatherDisplay:10.37,2013-02-18 21:36:00,
2013-02-18 16:39:00,57.6,1.3,28.13,SSW,202,8.1,8.1,10,0.00,CLR,SKC,0.00,WeatherDisplay:10.37,2013-02-18 21:39:00,
2013-02-18 16:41:00,57.7,1.4,28.13,South,180,10.4,10.4,10,0.00,CLR,SKC,0.00,WeatherDisplay:10.37,2013-02-18 21:41:00,
2013-02-18 16:44:00,57.2,1.0,28.13,SW,225,12.7,12.7,10,0.00,CLR,SKC,0.00,WeatherDisplay:10.37,2013-02-18 21:44:00,
2013-02-18 16:46:00,57.2,1.0,28.13,South,180,12.7,12.7,10,0.00,CLR,SKC,0.00,WeatherDisplay:10.37,2013-02-18 21:46:00,
2013-02-18 16:49:00,57.0,0.9,28.13,SW,225,12.7,12.7,10,0.00,CLR,SKC,0.00,WeatherDisplay:10.37,2013-02-18 21:49:00,
2013-02-18 16:51:00,56.8,0.7,28.13,South,180,8.1,8.1,10,0.00,CLR,SKC,0.00,WeatherDisplay:10.37,2013-02-18 21:51:00,
2013-02-18 16:54:00,56.8,0.7,28.13,WSW,248,8.1,8.1,10,0.00,CLR,SKC,0.00,WeatherDisplay:10.37,2013-02-18 21:54:00,
2013-02-18 16:56:00,56.5,0.4,28.12,South,180,8.1,8.1,10,0.00,CLR,SKC,0.00,WeatherDisplay:10.37,2013-02-18 21:56:00,
2013-02-18 16:59:00,56.1,0.2,28.13,SSE,158,8.1,8.1,10,0.00,CLR,SKC,0.00,WeatherDisplay:10.37,2013-02-18 21:59:00,
2013-02-18 17:01:00,55.9,0.0,28.13,SSE,158,5.8,5.8,10,0.00,CLR,SKC,0.00,WeatherDisplay:10.37,2013-02-18 22:01:00,
2013-02-18 17:04:00,55.9,0.0,28.13,SSE,158,5.8,5.8,10,0.00,CLR,SKC,0.00,WeatherDisplay:10.37,2013-02-18 22:04:00,
2013-02-18 17:06:00,55.9,0.0,28.12,SSE,158,5.8,5.8,10,0.00,CLR,SKC,0.00,WeatherDisplay:10.37,2013-02-18 22:06:00,
2013-02-18 17:07:00,55.9,0.0,28.12,SSE,158,5.8,5.8,10,0.00,CLR,SKC,0.00,WeatherDisplay:10.37,2013-02-18 22:07:00,
2013-02-18 17:09:00,55.2,-0.5,28.12,SSW,202,5.8,5.8,10,0.00,CLR,SKC,0.00,WeatherDisplay:10.37,2013-02-18 22:09:00,
2013-02-18 17:12:00,55.2,-0.5,28.12,South,180,8.1,8.1,10,0.00,CLR,SKC,0.00,WeatherDisplay:10.37,2013-02-18 22:12:00,
2013-02-18 17:14:00,55.2,-0.5,28.13,South,180,10.4,10.4,10,0.00,CLR,SKC,0.00,WeatherDisplay:10.37,2013-02-18 22:14:00,
2013-02-18 17:17:00,55.2,-0.5,28.12,SW,225,8.1,8.1,10,0.00,CLR,SKC,0.00,WeatherDisplay:10.37,2013-02-18 22:17:00,
2013-02-18 17:18:00,55.2,-0.5,28.12,SE,135,8.1,8.1,10,0.00,CLR,SKC,0.00,WeatherDisplay:10.37,2013-02-18 22:18:00,
2013-02-18 17:19:00,55.2,-0.5,28.12,South,180,6.9,6.9,10,0.00,CLR,SKC,0.00,WeatherDisplay:10.37,2013-02-18 22:19:00,
2013-02-18 17:23:00,55.0,-0.7,28.12,South,180,8.1,8.1,10,0.00,CLR,SKC,0.00,WeatherDisplay:10.37,2013-02-18 22:23:00,
2013-02-18 17:25:00,54.9,-0.8,28.12,South,180,10.4,10.4,10,0.00,CLR,SKC,0.00,WeatherDisplay:10.37,2013-02-18 22:25:00,
2013-02-18 17:28:00,55.0,-0.7,28.12,West,270,5.8,5.8,10,0.00,CLR,SKC,0.00,WeatherDisplay:10.37,2013-02-18 22:28:00,
2013-02-18 17:30:00,55.0,-0.7,28.12,South,180,6.9,6.9,10,0.00,CLR,SKC,0.00,WeatherDisplay:10.37,2013-02-18 22:30:00,
2013-02-18 17:33:00,55.0,-0.7,28.12,South,180,5.8,5.8,10,0.00,CLR,SKC,0.00,WeatherDisplay:10.37,2013-02-18 22:33:00,
2013-02-18 17:34:00,55.0,-0.7,28.12,South,180,5.8,5.8,10,0.00,CLR,SKC,0.00,WeatherDisplay:10.37,2013-02-18 22:34:00,
2013-02-18 17:35:00,54.9,-0.8,28.12,SE,135,5.8,5.8,10,0.00,CLR,SKC,0.00,WeatherDisplay:10.37,2013-02-18 22:35:00,
2013-02-18 17:39:00,54.7,-0.9,28.11,SE,135,8.1,8.1,10,0.00,CLR,SKC,0.00,WeatherDisplay:10.37,2013-02-18 22:39:00,
2013-02-18 17:40:00,54.5,-1.1,28.11,South,180,8.1,8.1,10,0.00,CLR,SKC,0.00,WeatherDisplay:10.37,2013-02-18 22:40:00,
2013-02-18 17:44:00,54.3,-1.2,28.11,East,90,4.6,4.6,10,0.00,CLR,SKC,0.00,WeatherDisplay:10.37,2013-02-18 22:44:00,
2013-02-18 17:45:00,54.0,-1.5,28.12,SE,135,8.1,8.1,10,0.00,CLR,SKC,0.00,WeatherDisplay:10.37,2013-02-18 22:45:00,
2013-02-18 17:49:00,53.8,-1.6,28.11,SE,135,6.9,0.0,10,0.00,CLR,SKC,0.00,WeatherDisplay:10.37,2013-02-18 22:49:00,
2013-02-18 17:51:00,53.6,-1.8,28.11,South,180,11.5,11.5,10,0.00,CLR,SKC,0.00,WeatherDisplay:10.37,2013-02-18 22:51:00,
2013-02-18 17:54:00,53.6,-1.8,28.11,South,180,6.9,6.9,10,0.00,CLR,SKC,0.00,WeatherDisplay:10.37,2013-02-18 22:54:00,
2013-02-18 17:56:00,53.4,-1.9,28.11,South,180,15.0,15.0,10,0.00,CLR,SKC,0.00,WeatherDisplay:10.37,2013-02-18 22:56:00,
2013-02-18 17:59:00,53.2,-2.1,28.11,NE,45,3.5,0.0,10,0.00,CLR,SKC,0.00,WeatherDisplay:10.37,2013-02-18 22:59:00,
2013-02-18 18:01:00,53.2,-2.1,28.11,ENE,68,3.5,3.5,10,0.00,CLR,SKC,0.00,WeatherDisplay:10.37,2013-02-18 23:01:00,
2013-02-18 18:04:00,53.2,-2.1,28.11,ENE,68,3.8,3.8,10,0.00,CLR,SKC,0.00,WeatherDisplay:10.37,2013-02-18 23:04:00,
2013-02-18 18:07:00,53.2,-2.1,28.11,ENE,68,3.5,3.5,10,0.00,CLR,SKC,0.00,WeatherDisplay:10.37,2013-02-18 23:07:00,
2013-02-18 18:09:00,52.0,-3.0,28.12,ENE,68,10.4,10.4,10,0.00,CLR,SKC,0.00,WeatherDisplay:10.37,2013-02-18 23:09:00,
2013-02-18 18:10:00,52.0,-3.0,28.12,ENE,68,10.4,10.4,10,0.00,CLR,SKC,0.00,WeatherDisplay:10.37,2013-02-18 23:10:00,
2013-02-18 18:12:00,51.8,-3.2,28.11,SE,135,4.6,0.0,10,0.00,CLR,SKC,0.00,WeatherDisplay:10.37,2013-02-18 23:12:00,
2013-02-18 18:14:00,51.8,-3.2,28.11,SW,225,5.8,5.8,10,0.00,CLR,SKC,0.00,WeatherDisplay:10.37,2013-02-18 23:14:00,
2013-02-18 18:15:00,51.8,-3.2,28.11,SW,225,5.8,5.8,10,0.00,CLR,SKC,0.00,WeatherDisplay:10.37,2013-02-18 23:15:00,
2013-02-18 18:18:00,51.4,-3.4,28.11,West,270,10.4,10.4,10,0.00,CLR,SKC,0.00,WeatherDisplay:10.37,2013-02-18 23:18:00,
2013-02-18 18:19:00,51.3,-3.6,28.11,South,180,3.5,3.5,10,0.00,CLR,SKC,0.00,WeatherDisplay:10.37,2013-02-18 23:19:00,
2013-02-18 18:20:00,51.3,-3.6,28.11,ENE,68,10.4,10.4,10,0.00,CLR,SKC,0.00,WeatherDisplay:10.37,2013-02-18 23:20:00,
2013-02-18 18:23:00,51.3,-3.6,28.11,West,270,8.1,0.0,10,0.00,CLR,SKC,0.00,WeatherDisplay:10.37,2013-02-18 23:23:00,
2013-02-18 18:24:00,51.1,-3.7,28.11,ENE,68,12.7,12.7,10,0.00,CLR,SKC,0.00,WeatherDisplay:10.37,2013-02-18 23:24:00,
2013-02-18 18:26:00,51.1,-3.7,28.11,ENE,68,15.0,15.0,10,0.00,CLR,SKC,0.00,WeatherDisplay:10.37,2013-02-18 23:26:00,
2013-02-18 18:28:00,51.1,-3.7,28.10,NE,45,9.2,0.0,10,0.00,CLR,SKC,0.00,WeatherDisplay:10.37,2013-02-18 23:28:00,
2013-02-18 18:29:00,51.1,-3.7,28.11,West,270,9.2,9.2,10,0.00,CLR,SKC,0.00,WeatherDisplay:10.37,2013-02-18 23:29:00,
2013-02-18 18:31:00,51.1,-3.7,28.11,South,180,12.7,12.7,10,0.00,CLR,SKC,0.00,WeatherDisplay:10.37,2013-02-18 23:31:00,
2013-02-18 18:33:00,50.9,-3.9,28.10,West,270,10.4,10.4,10,0.00,CLR,SKC,0.00,WeatherDisplay:10.37,2013-02-18 23:33:00,
2013-02-18 18:34:00,50.7,-4.0,28.11,South,180,6.9,0.0,10,0.00,CLR,SKC,0.00,WeatherDisplay:10.37,2013-02-18 23:34:00,
2013-02-18 18:36:00,50.7,-4.0,28.11,West,270,15.0,15.0,10,0.00,CLR,SKC,0.00,WeatherDisplay:10.37,2013-02-18 23:36:00,
2013-02-18 18:38:00,50.5,-4.1,28.11,North,0,5.8,5.8,10,0.00,CLR,SKC,0.00,WeatherDisplay:10.37,2013-02-18 23:38:00,
2013-02-18 18:39:00,50.5,-4.1,28.10,West,270,4.6,4.6,10,0.00,CLR,SKC,0.00,WeatherDisplay:10.37,2013-02-18 23:39:00,
2013-02-18 18:42:00,50.5,-4.1,28.12,SE,135,5.8,5.8,10,0.00,CLR,SKC,0.00,WeatherDisplay:10.37,2013-02-18 23:42:00,
2013-02-18 18:43:00,50.5,-4.1,28.11,NNW,338,6.9,6.9,10,0.00,CLR,SKC,0.00,WeatherDisplay:10.37,2013-02-18 23:43:00,
2013-02-18 18:44:00,50.5,-4.1,28.12,NW,315,4.6,0.0,10,0.00,CLR,SKC,0.00,WeatherDisplay:10.37,2013-02-18 23:44:00,
2013-02-18 18:47:00,50.4,-4.3,28.11,West,270,6.9,6.9,10,0.00,CLR,SKC,0.00,WeatherDisplay:10.37,2013-02-18 23:47:00,
2013-02-18 18:49:00,50.2,-4.4,28.11,SW,225,9.2,9.2,10,0.00,CLR,SKC,0.00,WeatherDisplay:10.37,2013-02-18 23:49:00,
2013-02-18 18:50:00,50.2,-4.4,28.11,SW,225,9.2,9.2,10,0.00,CLR,SKC,0.00,WeatherDisplay:10.37,2013-02-18 23:50:00,
2013-02-18 18:52:00,50.2,-4.4,28.11,North,0,10.4,0.0,10,0.00,CLR,SKC,0.00,WeatherDisplay:10.37,2013-02-18 23:52:00,
2013-02-18 18:54:00,50.2,-4.4,28.11,South,180,12.7,12.7,10,0.00,CLR,SKC,0.00,WeatherDisplay:10.37,2013-02-18 23:54:00,
2013-02-18 18:55:00,50.4,-4.3,28.11,West,270,12.7,12.7,10,0.00,CLR,SKC,0.00,WeatherDisplay:10.37,2013-02-18 23:55:00,
2013-02-18 18:57:00,50.2,-4.4,28.11,SW,225,15.0,15.0,10,0.00,CLR,SKC,0.00,WeatherDisplay:10.37,2013-02-18 23:57:00,
2013-02-18 18:59:00,50.2,-4.4,28.11,NE,45,4.6,4.6,10,0.00,CLR,SKC,0.00,WeatherDisplay:10.37,2013-02-18 23:59:00,
2013-02-18 19:00:00,50.0,-4.6,28.11,SW,225,4.6,4.6,10,0.00,CLR,SKC,0.00,WeatherDisplay:10.37,2013-02-19 00:00:00,
2013-02-18 19:02:00,50.0,-4.6,28.11,SW,225,4.6,4.6,10,0.00,CLR,SKC,0.00,WeatherDisplay:10.37,2013-02-19 00:02:00,
2013-02-18 19:04:00,50.0,-4.6,28.11,SW,225,4.6,4.6,10,0.00,CLR,SKC,0.00,WeatherDisplay:10.37,2013-02-19 00:04:00,
2013-02-18 19:05:00,50.0,-4.6,28.11,SW,225,4.6,4.6,10,0.00,CLR,SKC,0.00,WeatherDisplay:10.37,2013-02-19 00:05:00,
2013-02-18 19:07:00,50.5,-4.1,28.11,South,180,4.6,4.6,10,0.00,CLR,SKC,0.00,WeatherDisplay:10.37,2013-02-19 00:07:00,
2013-02-18 19:09:00,50.4,-4.3,28.10,South,180,5.8,5.8,10,0.00,CLR,SKC,0.00,WeatherDisplay:10.37,2013-02-19 00:09:00,
2013-02-18 19:10:00,50.4,-4.3,28.11,ESE,112,9.2,9.2,10,0.00,CLR,SKC,0.00,WeatherDisplay:10.37,2013-02-19 00:10:00,
2013-02-18 19:12:00,50.4,-4.3,28.11,SSW,202,8.3,8.3,10,0.00,CLR,SKC,0.00,WeatherDisplay:10.37,2013-02-19 00:12:00,
2013-02-18 19:14:00,50.2,-4.4,28.10,WSW,248,8.1,8.1,10,0.00,CLR,SKC,0.00,WeatherDisplay:10.37,2013-02-19 00:14:00,
2013-02-18 19:16:00,50.2,-4.4,28.12,SE,135,8.1,8.1,10,0.00,CLR,SKC,0.00,WeatherDisplay:10.37,2013-02-19 00:16:00,
2013-02-18 19:18:00,50.2,-4.4,28.11,SE,135,8.1,8.1,10,0.00,CLR,SKC,0.00,WeatherDisplay:10.37,2013-02-19 00:18:00,
2013-02-18 19:19:00,50.2,-4.4,28.11,SSE,158,4.6,4.6,10,0.00,CLR,SKC,0.00,WeatherDisplay:10.37,2013-02-19 00:19:00,
2013-02-18 19:21:00,50.0,-4.6,28.11,SW,225,5.8,5.8,10,0.00,CLR,SKC,0.00,WeatherDisplay:10.37,2013-02-19 00:21:00,
2013-02-18 19:23:00,50.0,-4.6,28.11,West,270,8.1,8.1,10,0.00,CLR,SKC,0.00,WeatherDisplay:10.37,2013-02-19 00:23:00,
2013-02-18 19:24:00,50.0,-4.6,28.11,ESE,112,5.8,5.8,10,0.00,CLR,SKC,0.00,WeatherDisplay:10.37,2013-02-19 00:24:00,
2013-02-18 19:26:00,49.8,-4.7,28.11,North,0,5.8,5.8,10,0.00,CLR,SKC,0.00,WeatherDisplay:10.37,2013-02-19 00:26:00,
2013-02-18 19:28:00,49.8,-4.7,28.11,SW,225,3.5,3.5,10,0.00,CLR,SKC,0.00,WeatherDisplay:10.37,2013-02-19 00:28:00,
2013-02-18 19:29:00,49.8,-4.7,28.11,South,180,3.5,3.5,10,0.00,CLR,SKC,0.00,WeatherDisplay:10.37,2013-02-19 00:29:00,
2013-02-18 19:31:00,49.8,-4.7,28.11,South,180,10.4,10.4,10,0.00,CLR,SKC,0.00,WeatherDisplay:10.37,2013-02-19 00:31:00,
2013-02-18 19:33:00,49.8,-4.7,28.11,SE,135,9.2,9.2,10,0.00,CLR,SKC,0.00,WeatherDisplay:10.37,2013-02-19 00:33:00,
2013-02-18 19:34:00,49.8,-4.7,28.11,West,270,9.2,9.2,10,0.00,CLR,SKC,0.00,WeatherDisplay:10.37,2013-02-19 00:34:00,
2013-02-18 19:36:00,49.8,-4.7,28.11,SSW,202,10.4,10.4,10,0.00,CLR,SKC,0.00,WeatherDisplay:10.37,2013-02-19 00:36:00,
2013-02-18 19:38:00,49.8,-4.7,28.12,NE,45,8.1,8.1,10,0.00,CLR,SKC,0.00,WeatherDisplay:10.37,2013-02-19 00:38:00,
2013-02-18 19:39:00,49.8,-4.7,28.12,SE,135,10.7,10.7,10,0.00,CLR,SKC,0.00,WeatherDisplay:10.37,2013-02-19 00:39:00,
2013-02-18 19:42:00,49.8,-4.7,28.12,ENE,68,6.9,6.9,10,0.00,CLR,SKC,0.00,WeatherDisplay:10.37,2013-02-19 00:42:00,
2013-02-18 19:43:00,49.8,-4.7,28.11,SE,135,10.4,10.4,10,0.00,CLR,SKC,0.00,WeatherDisplay:10.37,2013-02-19 00:43:00,
2013-02-18 19:44:00,49.8,-4.7,28.12,SE,135,9.2,9.2,10,0.00,CLR,SKC,0.00,WeatherDisplay:10.37,2013-02-19 00:44:00,
2013-02-18 19:48:00,49.8,-4.7,28.12,South,180,15.0,15.0,10,0.00,CLR,SKC,0.00,WeatherDisplay:10.37,2013-02-19 00:48:00,
2013-02-18 19:49:00,49.6,-4.8,28.12,East,90,10.4,10.4,10,0.00,CLR,SKC,0.00,WeatherDisplay:10.37,2013-02-19 00:49:00,
2013-02-18 19:50:00,49.6,-4.8,28.12,NE,45,5.8,0.0,10,0.00,CLR,SKC,0.00,WeatherDisplay:10.37,2013-02-19 00:50:00,
2013-02-18 19:53:00,49.5,-5.0,28.12,SSW,202,5.8,5.8,10,0.00,CLR,SKC,0.00,WeatherDisplay:10.37,2013-02-19 00:53:00,
2013-02-18 19:54:00,49.5,-5.0,28.12,SE,135,12.7,12.7,10,0.00,CLR,SKC,0.00,WeatherDisplay:10.37,2013-02-19 00:54:00,
2013-02-18 19:55:00,49.5,-5.0,28.12,NE,45,13.8,13.8,10,0.00,CLR,SKC,0.00,WeatherDisplay:10.37,2013-02-19 00:55:00,
2013-02-18 19:58:00,49.6,-4.8,28.11,NE,45,12.7,12.7,10,0.00,CLR,SKC,0.00,WeatherDisplay:10.37,2013-02-19 00:58:00,
2013-02-18 19:59:00,49.5,-5.0,28.12,West,270,12.7,12.7,10,0.00,CLR,SKC,0.00,WeatherDisplay:10.37,2013-02-19 00:59:00,
2013-02-18 20:00:00,49.5,-5.0,28.12,South,180,8.1,8.1,10,0.00,CLR,SKC,0.00,WeatherDisplay:10.37,2013-02-19 01:00:00,
2013-02-18 20:03:00,49.5,-5.0,28.12,South,180,5.8,5.8,10,0.00,CLR,SKC,0.00,WeatherDisplay:10.37,2013-02-19 01:03:00,
2013-02-18 20:04:00,49.5,-5.0,28.12,South,180,5.8,5.8,10,0.00,CLR,SKC,0.00,WeatherDisplay:10.37,2013-02-19 01:04:00,
2013-02-18 20:05:00,49.5,-5.0,28.12,South,180,5.8,5.8,10,0.00,CLR,SKC,0.00,WeatherDisplay:10.37,2013-02-19 01:05:00,
2013-02-18 20:09:00,49.1,-5.3,28.12,South,180,6.9,6.9,10,0.00,CLR,SKC,0.00,WeatherDisplay:10.37,2013-02-19 01:09:00,
2013-02-18 20:10:00,49.1,-5.3,28.12,SE,135,9.2,9.2,10,0.00,CLR,SKC,0.00,WeatherDisplay:10.37,2013-02-19 01:10:00,
2013-02-18 20:14:00,48.9,-5.4,28.11,ENE,68,5.8,5.8,10,0.00,CLR,SKC,0.00,WeatherDisplay:10.37,2013-02-19 01:14:00,
2013-02-18 20:15:00,48.9,-5.4,28.11,ESE,119,2.0,9.0,10,0.00,CLR,SKC,0.00,WeatherDisplay:10.37,2013-02-19 01:15:00,
2013-02-18 20:19:00,48.6,-5.7,28.12,South,180,6.9,6.9,10,0.00,CLR,SKC,0.00,WeatherDisplay:10.37,2013-02-19 01:19:00,
2013-02-18 20:20:00,48.4,-5.8,28.11,NW,315,6.9,6.9,10,0.00,CLR,SKC,0.00,WeatherDisplay:10.37,2013-02-19 01:20:00,
2013-02-18 20:24:00,48.4,-5.8,28.12,SE,135,5.8,5.8,10,0.00,CLR,SKC,0.00,WeatherDisplay:10.37,2013-02-19 01:24:00,
2013-02-18 20:25:00,48.4,-5.8,28.12,NE,45,6.9,6.9,10,0.00,CLR,SKC,0.00,WeatherDisplay:10.37,2013-02-19 01:25:00,
2013-02-18 20:26:00,48.4,-5.8,28.12,South,180,6.9,6.9,10,0.00,CLR,SKC,0.00,WeatherDisplay:10.37,2013-02-19 01:26:00,
2013-02-18 20:29:00,48.6,-5.7,28.12,West,270,15.0,15.0,10,0.00,CLR,SKC,0.00,WeatherDisplay:10.37,2013-02-19 01:29:00,
2013-02-18 20:30:00,48.7,-5.5,28.12,South,180,15.0,15.0,10,0.00,CLR,SKC,0.00,WeatherDisplay:10.37,2013-02-19 01:30:00,
2013-02-18 20:31:00,48.6,-5.7,28.12,South,180,10.4,10.4,10,0.00,CLR,SKC,0.00,WeatherDisplay:10.37,2013-02-19 01:31:00,
2013-02-18 20:34:00,48.6,-5.7,28.12,SE,135,10.4,10.4,10,0.00,CLR,SKC,0.00,WeatherDisplay:10.37,2013-02-19 01:34:00,
2013-02-18 20:35:00,48.6,-5.7,28.12,South,180,6.9,6.9,10,0.00,CLR,SKC,0.00,WeatherDisplay:10.37,2013-02-19 01:35:00,
2013-02-18 20:36:00,48.6,-5.7,28.12,South,180,12.7,12.7,10,0.00,CLR,SKC,0.00,WeatherDisplay:10.37,2013-02-19 01:36:00,
2013-02-18 20:40:00,48.7,-5.5,28.12,South,180,16.1,16.1,10,0.00,CLR,SKC,0.00,WeatherDisplay:10.37,2013-02-19 01:40:00,
2013-02-18 20:41:00,48.7,-5.5,28.12,South,180,16.1,16.1,10,0.00,CLR,SKC,0.00,WeatherDisplay:10.37,2013-02-19 01:41:00,
2013-02-18 20:45:00,48.7,-5.5,28.12,SE,135,12.7,12.7,10,0.00,CLR,SKC,0.00,WeatherDisplay:10.37,2013-02-19 01:45:00,
2013-02-18 20:46:00,48.7,-5.5,28.11,SW,225,8.1,8.1,10,0.00,CLR,SKC,0.00,WeatherDisplay:10.37,2013-02-19 01:46:00,
2013-02-18 20:50:00,48.7,-5.5,28.11,South,180,16.1,16.1,10,0.00,CLR,SKC,0.00,WeatherDisplay:10.37,2013-02-19 01:50:00,
2013-02-18 20:51:00,48.7,-5.5,28.11,SSW,202,11.5,11.5,10,0.00,CLR,SKC,0.00,WeatherDisplay:10.37,2013-02-19 01:51:00,
2013-02-18 20:55:00,48.4,-5.8,28.11,South,180,6.9,6.9,10,0.00,CLR,SKC,0.00,WeatherDisplay:10.37,2013-02-19 01:55:00,
2013-02-18 20:56:00,48.4,-5.8,28.11,NE,45,5.8,5.8,10,0.00,CLR,SKC,0.00,WeatherDisplay:10.37,2013-02-19 01:56:00,
2013-02-18 21:00:00,48.2,-6.0,28.11,South,180,16.1,16.1,10,0.00,CLR,SKC,0.00,WeatherDisplay:10.37,2013-02-19 02:00:00,
2013-02-18 21:01:00,48.2,-6.0,28.11,South,180,11.5,11.5,10,0.00,CLR,SKC,0.00,WeatherDisplay:10.37,2013-02-19 02:01:00,
2013-02-18 21:06:00,48.2,-6.0,28.11,South,180,2.3,2.3,10,0.00,CLR,SKC,0.00,WeatherDisplay:10.37,2013-02-19 02:06:00,
2013-02-18 21:11:00,48.2,-6.0,28.11,NE,45,8.1,8.1,10,0.00,CLR,SKC,0.00,WeatherDisplay:10.37,2013-02-19 02:11:00,
2013-02-18 21:16:00,47.7,-6.4,28.10,NW,315,5.8,5.8,10,0.00,CLR,SKC,0.00,WeatherDisplay:10.37,2013-02-19 02:16:00,
2013-02-18 21:17:00,47.7,-6.4,28.10,NW,315,10.4,10.4,10,0.00,CLR,SKC,0.00,WeatherDisplay:10.37,2013-02-19 02:17:00,
2013-02-18 21:21:00,46.9,-6.9,28.09,South,180,11.5,11.5,10,0.00,CLR,SKC,0.00,WeatherDisplay:10.37,2013-02-19 02:21:00,
2013-02-18 21:23:00,47.1,-6.8,28.10,SE,135,11.5,11.5,10,0.00,CLR,SKC,0.00,WeatherDisplay:10.37,2013-02-19 02:23:00,
2013-02-18 21:26:00,47.1,-6.8,28.10,South,180,6.9,7.6,10,0.00,CLR,SKC,0.00,WeatherDisplay:10.37,2013-02-19 02:26:00,
2013-02-18 21:28:00,47.3,-6.7,28.10,SE,135,20.7,20.7,10,0.00,CLR,SKC,0.00,WeatherDisplay:10.37,2013-02-19 02:28:00,
2013-02-18 21:31:00,47.3,-6.7,28.10,SW,225,9.2,9.2,10,0.00,CLR,SKC,0.00,WeatherDisplay:10.37,2013-02-19 02:31:00,
2013-02-18 21:33:00,47.3,-6.7,28.10,West,270,10.4,10.4,10,0.00,CLR,SKC,0.00,WeatherDisplay:10.37,2013-02-19 02:33:00,
2013-02-18 21:37:00,47.3,-6.7,28.11,SSW,202,17.3,17.3,10,0.00,CLR,SKC,0.00,WeatherDisplay:10.37,2013-02-19 02:37:00,
2013-02-18 21:38:00,47.3,-6.7,28.10,NE,45,9.2,9.2,10,0.00,CLR,SKC,0.00,WeatherDisplay:10.37,2013-02-19 02:38:00,
2013-02-18 21:42:00,47.5,-6.5,28.10,SW,225,10.4,10.4,10,0.00,CLR,SKC,0.00,WeatherDisplay:10.37,2013-02-19 02:42:00,
2013-02-18 21:43:00,47.5,-6.5,28.10,South,180,8.1,9.8,10,0.00,CLR,SKC,0.00,WeatherDisplay:10.37,2013-02-19 02:43:00,
2013-02-18 21:47:00,47.3,-6.7,28.11,SE,135,10.4,10.4,10,0.00,CLR,SKC,0.00,WeatherDisplay:10.37,2013-02-19 02:47:00,
2013-02-18 21:48:00,47.3,-6.7,28.11,SE,135,10.4,10.4,10,0.00,CLR,SKC,0.00,WeatherDisplay:10.37,2013-02-19 02:48:00,
2013-02-18 21:52:00,47.3,-6.7,28.11,South,180,12.7,12.7,10,0.00,CLR,SKC,0.00,WeatherDisplay:10.37,2013-02-19 02:52:00,
2013-02-18 21:53:00,47.3,-6.7,28.11,East,90,10.4,10.4,10,0.00,CLR,SKC,0.00,WeatherDisplay:10.37,2013-02-19 02:53:00,
2013-02-18 21:54:00,47.3,-6.7,28.11,East,90,11.5,11.5,10,0.00,CLR,SKC,0.00,WeatherDisplay:10.37,2013-02-19 02:54:00,
2013-02-18 21:57:00,47.3,-6.7,28.11,SE,135,15.0,15.0,10,0.00,CLR,SKC,0.00,WeatherDisplay:10.37,2013-02-19 02:57:00,
2013-02-18 21:59:00,47.5,-6.5,28.11,SW,225,12.7,12.7,10,0.00,CLR,SKC,0.00,WeatherDisplay:10.37,2013-02-19 02:59:00,
2013-02-18 22:03:00,47.5,-6.5,28.10,SE,135,8.1,8.1,10,0.00,CLR,SKC,0.00,WeatherDisplay:10.37,2013-02-19 03:03:00,
2013-02-18 22:05:00,47.5,-6.5,28.10,SE,135,8.1,8.1,10,0.00,CLR,SKC,0.00,WeatherDisplay:10.37,2013-02-19 03:05:00,
2013-02-18 22:06:00,47.5,-6.5,28.10,SE,135,8.1,8.1,10,0.00,CLR,SKC,0.00,WeatherDisplay:10.37,2013-02-19 03:06:00,
2013-02-18 22:08:00,47.5,-6.5,28.11,South,180,9.2,9.2,10,0.00,CLR,SKC,0.00,WeatherDisplay:10.37,2013-02-19 03:08:00,
2013-02-18 22:11:00,47.3,-6.7,28.10,SE,135,12.7,12.7,10,0.00,CLR,SKC,0.00,WeatherDisplay:10.37,2013-02-19 03:11:00,
2013-02-18 22:12:00,47.5,-6.5,28.10,SE,135,16.1,16.1,10,0.00,CLR,SKC,0.00,WeatherDisplay:10.37,2013-02-19 03:12:00,
2013-02-18 22:13:00,47.5,-6.5,28.11,SE,135,16.1,16.1,10,0.00,CLR,SKC,0.00,WeatherDisplay:10.37,2013-02-19 03:13:00,
2013-02-18 22:16:00,47.5,-6.5,28.11,SE,135,9.2,9.2,10,0.00,CLR,SKC,0.00,WeatherDisplay:10.37,2013-02-19 03:16:00,
2013-02-18 22:17:00,47.5,-6.5,28.11,SE,135,10.4,10.4,10,0.00,CLR,SKC,0.00,WeatherDisplay:10.37,2013-02-19 03:17:00,
2013-02-18 22:18:00,47.3,-6.7,28.11,SE,135,10.4,10.4,10,0.00,CLR,SKC,0.00,WeatherDisplay:10.37,2013-02-19 03:18:00,
2013-02-18 22:21:00,46.8,-7.1,28.10,SE,135,15.0,15.0,10,0.00,CLR,SKC,0.00,WeatherDisplay:10.37,2013-02-19 03:21:00,
2013-02-18 22:23:00,47.3,-6.7,28.10,SE,135,9.2,9.2,10,0.00,CLR,SKC,0.00,WeatherDisplay:10.37,2013-02-19 03:23:00,
2013-02-18 22:26:00,47.3,-6.7,28.09,NE,45,6.9,6.9,10,0.00,CLR,SKC,0.00,WeatherDisplay:10.37,2013-02-19 03:26:00,
2013-02-18 22:28:00,47.1,-6.8,28.10,South,180,5.8,5.8,10,0.00,CLR,SKC,0.00,WeatherDisplay:10.37,2013-02-19 03:28:00,
2013-02-18 22:31:00,47.1,-6.8,28.08,SE,135,10.4,0.0,10,0.00,CLR,SKC,0.00,WeatherDisplay:10.37,2013-02-19 03:31:00,
2013-02-18 22:33:00,47.1,-6.8,28.09,SE,135,5.8,5.8,10,0.00,CLR,SKC,0.00,WeatherDisplay:10.37,2013-02-19 03:33:00,
2013-02-18 22:34:00,47.1,-6.8,28.08,SW,225,5.8,5.8,10,0.00,CLR,SKC,0.00,WeatherDisplay:10.37,2013-02-19 03:34:00,
2013-02-18 22:36:00,46.9,-6.9,28.09,South,180,6.9,6.9,10,0.00,CLR,SKC,0.00,WeatherDisplay:10.37,2013-02-19 03:36:00,
2013-02-18 22:39:00,46.9,-6.9,28.09,North,0,5.8,5.8,10,0.00,CLR,SKC,0.00,WeatherDisplay:10.37,2013-02-19 03:39:00,
2013-02-18 22:40:00,46.8,-7.1,28.09,ENE,68,5.8,5.8,10,0.00,CLR,SKC,0.00,WeatherDisplay:10.37,2013-02-19 03:40:00,
2013-02-18 22:41:00,46.8,-7.1,28.08,NE,45,8.1,8.1,10,0.00,CLR,SKC,0.00,WeatherDisplay:10.37,2013-02-19 03:41:00,
2013-02-18 22:44:00,46.8,-7.1,28.09,NE,45,5.8,5.8,10,0.00,CLR,SKC,0.00,WeatherDisplay:10.37,2013-02-19 03:44:00,
2013-02-18 22:45:00,46.8,-7.1,28.08,South,180,8.1,8.1,10,0.00,CLR,SKC,0.00,WeatherDisplay:10.37,2013-02-19 03:45:00,
2013-02-18 22:46:00,46.8,-7.1,28.08,SE,135,11.5,11.5,10,0.00,CLR,SKC,0.00,WeatherDisplay:10.37,2013-02-19 03:46:00,
2013-02-18 22:49:00,46.8,-7.1,28.08,North,0,5.8,5.8,10,0.00,CLR,SKC,0.00,WeatherDisplay:10.37,2013-02-19 03:49:00,
2013-02-18 22:50:00,46.8,-7.1,28.08,SSW,202,5.8,0.0,10,0.00,CLR,SKC,0.00,WeatherDisplay:10.37,2013-02-19 03:50:00,
2013-02-18 22:52:00,46.6,-7.2,28.08,SE,135,5.8,5.8,10,0.00,CLR,SKC,0.00,WeatherDisplay:10.37,2013-02-19 03:52:00,
2013-02-18 22:54:00,46.8,-7.1,28.07,South,180,12.7,12.7,10,0.00,CLR,SKC,0.00,WeatherDisplay:10.37,2013-02-19 03:54:00,
2013-02-18 22:57:00,46.8,-7.1,28.08,SW,225,10.4,10.4,10,0.00,CLR,SKC,0.00,WeatherDisplay:10.37,2013-02-19 03:57:00,
2013-02-18 22:58:00,46.8,-7.1,28.08,South,180,15.0,15.0,10,0.00,CLR,SKC,0.00,WeatherDisplay:10.37,2013-02-19 03:58:00,
2013-02-18 22:59:00,46.8,-7.1,28.08,NW,315,15.0,0.0,10,0.00,CLR,SKC,0.00,WeatherDisplay:10.37,2013-02-19 03:59:00,
2013-02-18 23:02:00,46.8,-7.1,28.08,SE,135,4.6,4.6,10,0.00,CLR,SKC,0.00,WeatherDisplay:10.37,2013-02-19 04:02:00,
2013-02-18 23:03:00,46.8,-7.1,28.08,SE,135,4.6,4.6,10,0.00,CLR,SKC,0.00,WeatherDisplay:10.37,2013-02-19 04:03:00,
2013-02-18 23:04:00,46.8,-7.1,28.08,SE,135,4.6,4.6,10,0.00,CLR,SKC,0.00,WeatherDisplay:10.37,2013-02-19 04:04:00,
2013-02-18 23:08:00,46.8,-7.1,28.08,South,180,5.8,5.8,10,0.00,CLR,SKC,0.00,WeatherDisplay:10.37,2013-02-19 04:08:00,
2013-02-18 23:10:00,46.8,-7.1,28.07,SE,135,6.9,6.9,10,0.00,CLR,SKC,0.00,WeatherDisplay:10.37,2013-02-19 04:10:00,
2013-02-18 23:13:00,46.8,-7.1,28.08,SW,225,15.0,15.0,10,0.00,CLR,SKC,0.00,WeatherDisplay:10.37,2013-02-19 04:13:00,
2013-02-18 23:15:00,46.8,-7.1,28.08,South,180,13.8,13.8,10,0.00,CLR,SKC,0.00,WeatherDisplay:10.37,2013-02-19 04:15:00,
2013-02-18 23:18:00,46.8,-7.1,28.07,NW,315,5.8,5.8,10,0.00,CLR,SKC,0.00,WeatherDisplay:10.37,2013-02-19 04:18:00,
2013-02-18 23:20:00,46.8,-7.1,28.07,SE,135,8.1,8.1,10,0.00,CLR,SKC,0.00,WeatherDisplay:10.37,2013-02-19 04:20:00,
2013-02-18 23:23:00,46.6,-7.2,28.07,ENE,68,4.6,0.0,10,0.00,CLR,SKC,0.00,WeatherDisplay:10.37,2013-02-19 04:23:00,
2013-02-18 23:25:00,46.6,-7.2,28.07,SE,135,10.4,10.4,10,0.00,CLR,SKC,0.00,WeatherDisplay:10.37,2013-02-19 04:25:00,
2013-02-18 23:28:00,46.6,-7.2,28.07,South,180,5.8,5.8,10,0.00,CLR,SKC,0.00,WeatherDisplay:10.37,2013-02-19 04:28:00,
2013-02-18 23:30:00,46.6,-7.2,28.08,SE,135,8.1,8.1,10,0.00,CLR,SKC,0.00,WeatherDisplay:10.37,2013-02-19 04:30:00,
2013-02-18 23:33:00,46.8,-7.1,28.08,SW,225,9.2,9.2,10,0.00,CLR,SKC,0.00,WeatherDisplay:10.37,2013-02-19 04:33:00,
2013-02-18 23:35:00,46.9,-6.9,28.08,South,180,10.4,10.4,10,0.00,CLR,SKC,0.00,WeatherDisplay:10.37,2013-02-19 04:35:00,
2013-02-18 23:38:00,47.1,-6.8,28.07,South,180,20.7,20.7,10,0.00,CLR,SKC,0.00,WeatherDisplay:10.37,2013-02-19 04:38:00,
2013-02-18 23:39:00,47.1,-6.8,28.07,South,180,20.7,20.7,10,0.00,CLR,SKC,0.00,WeatherDisplay:10.37,2013-02-19 04:39:00,
2013-02-18 23:40:00,47.3,-6.7,28.07,SW,225,10.4,10.4,10,0.00,CLR,SKC,0.00,WeatherDisplay:10.37,2013-02-19 04:40:00,
2013-02-18 23:43:00,47.3,-6.7,28.07,SSE,158,19.0,19.0,10,0.00,CLR,SKC,0.00,WeatherDisplay:10.37,2013-02-19 04:43:00,
2013-02-18 23:44:00,47.3,-6.7,28.07,SSE,158,19.6,19.6,10,0.00,CLR,SKC,0.00,WeatherDisplay:10.37,2013-02-19 04:44:00,
2013-02-18 23:45:00,47.1,-6.8,28.08,South,180,19.6,19.6,10,0.00,CLR,SKC,0.00,WeatherDisplay:10.37,2013-02-19 04:45:00,
2013-02-18 23:49:00,47.1,-6.8,28.08,South,180,10.4,10.4,10,0.00,CLR,SKC,0.00,WeatherDisplay:10.37,2013-02-19 04:49:00,
2013-02-18 23:50:00,46.9,-6.9,28.09,South,180,15.0,15.0,10,0.00,CLR,SKC,0.00,WeatherDisplay:10.37,2013-02-19 04:50:00,
2013-02-18 23:54:00,46.9,-6.9,28.09,SW,225,15.0,15.0,10,0.00,CLR,SKC,0.00,WeatherDisplay:10.37,2013-02-19 04:54:00,
2013-02-18 23:55:00,46.9,-6.9,28.09,SW,225,10.4,10.4,10,0.00,CLR,SKC,0.00,WeatherDisplay:10.37,2013-02-19 04:55:00,
2013-02-18 23:59:00,47.1,-6.8,28.08,South,180,13.8,13.8,10,0.00,CLR,SKC,0.00,WeatherDisplay:10.37,2013-02-19 04:59:00,